Wetterdaten: Mittwoch, 16.10.2013
Datum Zeit Temp. Aussen +5cm Feuchte Auss Luftdruck Regen Sonnenschein Regendauer UV Solar Windben
16.10.2013 00:00 9,0 C 7,8 C 98 % 1008,7 hPa 0,0 l/m 0 min 0 min 0,0 UV-I 0 W/m 0,0 km/h (0 Bft)
16.10.2013 00:02 9,0 C 7,8 C 98 % 1008,7 hPa 0,0 l/m 0 min 0 min 0,0 UV-I 0 W/m 0,0 km/h (0 Bft)
16.10.2013 00:06 9,1 C 8,3 C 98 % 1008,8 hPa 0,0 l/m 0 min 0 min 0,0 UV-I 0 W/m 0,0 km/h (0 Bft)
16.10.2013 00:08 9,1 C 7,8 C 98 % 1008,8 hPa 0,0 l/m 0 min 0 min 0,0 UV-I 0 W/m 0,0 km/h (0 Bft)
16.10.2013 00:10 9,1 C 7,8 C 98 % 1008,9 hPa 0,0 l/m 0 min 0 min 0,0 UV-I 0 W/m 0,0 km/h (0 Bft)
16.10.2013 00:12 9,1 C 7,8 C 98 % 1008,9 hPa 0,0 l/m 0 min 0 min 0,0 UV-I 0 W/m 0,0 km/h (0 Bft)
16.10.2013 00:14 9,1 C 7,8 C 98 % 1009,1 hPa 0,0 l/m 0 min 0 min 0,0 UV-I 0 W/m 0,0 km/h (0 Bft)
16.10.2013 00:16 9,0 C 7,8 C 98 % 1009,1 hPa 0,0 l/m 0 min 0 min 0,0 UV-I 0 W/m 0,0 km/h (0 Bft)
16.10.2013 00:18 9,0 C 7,8 C 98 % 1009,2 hPa 0,0 l/m 0 min 0 min 0,0 UV-I 0 W/m 0,0 km/h (0 Bft)
16.10.2013 00:20 8,9 C 7,8 C 98 % 1009,2 hPa 0,0 l/m 0 min 0 min 0,0 UV-I 0 W/m 0,0 km/h (0 Bft)
16.10.2013 00:22 8,9 C 7,8 C 98 % 1009,2 hPa 0,0 l/m 0 min 0 min 0,0 UV-I 0 W/m 0,0 km/h (0 Bft)
16.10.2013 00:24 8,9 C 7,8 C 98 % 1009,2 hPa 0,0 l/m 0 min 0 min 0,0 UV-I 0 W/m 0,0 km/h (0 Bft)
16.10.2013 00:26 8,9 C 7,8 C 98 % 1009,2 hPa 0,0 l/m 0 min 0 min 0,0 UV-I 0 W/m 0,0 km/h (0 Bft)
16.10.2013 00:28 8,8 C 7,2 C 98 % 1009,3 hPa 0,0 l/m 0 min 0 min 0,0 UV-I 0 W/m 0,0 km/h (0 Bft)
16.10.2013 00:30 8,8 C 7,2 C 98 % 1009,3 hPa 0,0 l/m 0 min 0 min 0,0 UV-I 0 W/m 0,0 km/h (0 Bft)
16.10.2013 00:32 8,7 C 7,2 C 98 % 1009,2 hPa 0,0 l/m 0 min 0 min 0,0 UV-I 0 W/m 0,0 km/h (0 Bft)
16.10.2013 00:34 8,7 C 7,2 C 98 % 1009,2 hPa 0,0 l/m 0 min 0 min 0,0 UV-I 0 W/m 0,0 km/h (0 Bft)
16.10.2013 00:36 8,7 C 7,2 C 98 % 1009,2 hPa 0,0 l/m 0 min 0 min 0,0 UV-I 0 W/m 0,0 km/h (0 Bft)
16.10.2013 00:38 8,7 C 7,2 C 98 % 1009,2 hPa 0,0 l/m 0 min 0 min 0,0 UV-I 0 W/m 0,0 km/h (0 Bft)
16.10.2013 00:40 8,7 C 7,2 C 98 % 1009,2 hPa 0,0 l/m 0 min 0 min 0,0 UV-I 0 W/m 0,0 km/h (0 Bft)
16.10.2013 00:42 8,7 C 7,2 C 98 % 1009,3 hPa 0,0 l/m 0 min 0 min 0,0 UV-I 0 W/m 0,0 km/h (0 Bft)
16.10.2013 00:44 8,7 C 7,8 C 98 % 1009,3 hPa 0,0 l/m 0 min 0 min 0,0 UV-I 0 W/m 0,0 km/h (0 Bft)
16.10.2013 00:46 8,7 C 7,8 C 98 % 1009,3 hPa 0,0 l/m 0 min 0 min 0,0 UV-I 0 W/m 0,0 km/h (0 Bft)
16.10.2013 00:48 8,7 C 7,8 C 98 % 1009,3 hPa 0,0 l/m 0 min 0 min 0,0 UV-I 0 W/m 0,0 km/h (0 Bft)
16.10.2013 00:50 8,7 C 7,8 C 98 % 1009,3 hPa 0,0 l/m 0 min 0 min 0,0 UV-I 0 W/m 0,0 km/h (0 Bft)
16.10.2013 00:52 8,8 C 7,8 C 98 % 1009,4 hPa 0,0 l/m 0 min 0 min 0,0 UV-I 0 W/m 0,0 km/h (0 Bft)
16.10.2013 00:54 8,8 C 7,8 C 98 % 1009,4 hPa 0,0 l/m 0 min 0 min 0,0 UV-I 0 W/m 0,0 km/h (0 Bft)
16.10.2013 00:56 8,8 C 7,8 C 98 % 1009,4 hPa 0,0 l/m 0 min 0 min 0,0 UV-I 0 W/m 0,0 km/h (0 Bft)
16.10.2013 00:58 8,8 C 7,8 C 98 % 1009,3 hPa 0,0 l/m 0 min 0 min 0,0 UV-I 0 W/m 0,0 km/h (0 Bft)
16.10.2013 01:00 8,7 C 7,8 C 98 % 1009,4 hPa 0,0 l/m 0 min 0 min 0,0 UV-I 0 W/m 0,0 km/h (0 Bft)
16.10.2013 01:02 8,7 C 7,8 C 98 % 1009,5 hPa 0,0 l/m 0 min 0 min 0,0 UV-I 0 W/m 2,6 km/h (1 Bft)
16.10.2013 01:06 8,7 C 7,8 C 99 % 1009,5 hPa 0,0 l/m 0 min 0 min 0,0 UV-I 0 W/m 10,3 km/h (2 Bft)
16.10.2013 01:08 8,8 C 7,8 C 99 % 1009,5 hPa 0,0 l/m 0 min 0 min 0,0 UV-I 0 W/m 7,7 km/h (2 Bft)
16.10.2013 01:10 8,8 C 7,8 C 98 % 1009,6 hPa 0,0 l/m 0 min 0 min 0,0 UV-I 0 W/m 5,1 km/h (1 Bft)
16.10.2013 01:12 8,8 C 7,8 C 98 % 1009,5 hPa 0,0 l/m 0 min 0 min 0,0 UV-I 0 W/m 0,0 km/h (0 Bft)
16.10.2013 01:14 8,9 C 7,8 C 98 % 1009,6 hPa 0,0 l/m 0 min 0 min 0,0 UV-I 0 W/m 0,0 km/h (0 Bft)
16.10.2013 01:16 8,9 C 7,8 C 98 % 1009,5 hPa 0,0 l/m 0 min 0 min 0,0 UV-I 0 W/m 0,0 km/h (0 Bft)
16.10.2013 01:18 8,9 C 7,8 C 98 % 1009,6 hPa 0,0 l/m 0 min 0 min 0,0 UV-I 0 W/m 5,1 km/h (1 Bft)
16.10.2013 01:20 8,9 C 7,8 C 98 % 1009,6 hPa 0,0 l/m 0 min 0 min 0,0 UV-I 0 W/m 0,0 km/h (0 Bft)
16.10.2013 01:22 8,9 C 7,8 C 98 % 1009,7 hPa 0,0 l/m 0 min 0 min 0,0 UV-I 0 W/m 5,1 km/h (1 Bft)
16.10.2013 01:24 8,9 C 7,8 C 98 % 1009,8 hPa 0,0 l/m 0 min 0 min 0,0 UV-I 0 W/m 0,0 km/h (0 Bft)
16.10.2013 01:26 8,9 C 7,8 C 98 % 1009,8 hPa 0,0 l/m 0 min 0 min 0,0 UV-I 0 W/m 15,4 km/h (3 Bft)
16.10.2013 01:28 8,9 C 7,8 C 98 % 1009,9 hPa 0,0 l/m 0 min 0 min 0,0 UV-I 0 W/m 2,6 km/h (1 Bft)
16.10.2013 01:30 8,9 C 7,8 C 98 % 1009,9 hPa 0,0 l/m 0 min 0 min 0,0 UV-I 0 W/m 0,0 km/h (0 Bft)
16.10.2013 01:32 8,9 C 7,8 C 99 % 1009,9 hPa 0,0 l/m 0 min 0 min 0,0 UV-I 0 W/m 0,0 km/h (0 Bft)
16.10.2013 01:34 9,0 C 7,8 C 99 % 1009,9 hPa 0,0 l/m 0 min 0 min 0,0 UV-I 0 W/m 12,9 km/h (3 Bft)
16.10.2013 01:36 9,0 C 7,8 C 99 % 1009,9 hPa 0,0 l/m 0 min 0 min 0,0 UV-I 0 W/m 12,9 km/h (3 Bft)
16.10.2013 01:38 8,9 C 7,8 C 99 % 1009,9 hPa 0,0 l/m 0 min 0 min 0,0 UV-I 0 W/m 10,3 km/h (2 Bft)
16.10.2013 01:40 8,9 C 7,8 C 99 % 1009,9 hPa 0,0 l/m 0 min 0 min 0,0 UV-I 0 W/m 0,0 km/h (0 Bft)
16.10.2013 01:42 8,9 C 7,8 C 99 % 1010,0 hPa 0,0 l/m 0 min 0 min 0,0 UV-I 0 W/m 0,0 km/h (0 Bft)
16.10.2013 01:44 8,9 C 7,8 C 99 % 1010,1 hPa 0,0 l/m 0 min 0 min 0,0 UV-I 0 W/m 2,6 km/h (1 Bft)
16.10.2013 01:46 8,9 C 7,8 C 99 % 1010,1 hPa 0,0 l/m 0 min 0 min 0,0 UV-I 0 W/m 7,7 km/h (2 Bft)
16.10.2013 01:48 8,9 C 7,8 C 99 % 1010,0 hPa 0,0 l/m 0 min 0 min 0,0 UV-I 0 W/m 10,3 km/h (2 Bft)
16.10.2013 01:50 8,9 C 7,8 C 99 % 1010,0 hPa 0,0 l/m 0 min 0 min 0,0 UV-I 0 W/m 10,3 km/h (2 Bft)
16.10.2013 01:52 8,9 C 7,8 C 99 % 1010,0 hPa 0,0 l/m 0 min 0 min 0,0 UV-I 0 W/m 0,0 km/h (0 Bft)
16.10.2013 01:54 8,9 C 7,8 C 99 % 1010,0 hPa 0,0 l/m 0 min 0 min 0,0 UV-I 0 W/m 10,3 km/h (2 Bft)
16.10.2013 01:56 8,9 C 7,8 C 99 % 1010,2 hPa 0,0 l/m 0 min 0 min 0,0 UV-I 0 W/m 2,6 km/h (1 Bft)
16.10.2013 01:58 8,9 C 7,8 C 99 % 1010,2 hPa 0,0 l/m 0 min 0 min 0,0 UV-I 0 W/m 0,0 km/h (0 Bft)
16.10.2013 02:00 8,9 C 7,8 C 99 % 1010,2 hPa 0,0 l/m 0 min 0 min 0,0 UV-I 0 W/m 0,0 km/h (0 Bft)
16.10.2013 02:02 9,0 C 7,8 C 99 % 1010,2 hPa 0,0 l/m 0 min 0 min 0,0 UV-I 0 W/m 0,0 km/h (0 Bft)
16.10.2013 02:06 9,0 C 7,8 C 99 % 1010,2 hPa 0,0 l/m 0 min 0 min 0,0 UV-I 0 W/m 0,0 km/h (0 Bft)
16.10.2013 02:08 9,0 C 7,8 C 99 % 1010,3 hPa 0,0 l/m 0 min 0 min 0,0 UV-I 0 W/m 5,1 km/h (1 Bft)
16.10.2013 02:10 8,9 C 7,8 C 99 % 1010,2 hPa 0,0 l/m 0 min 0 min 0,0 UV-I 0 W/m 0,0 km/h (0 Bft)
16.10.2013 02:12 8,9 C 7,8 C 99 % 1010,2 hPa 0,0 l/m 0 min 0 min 0,0 UV-I 0 W/m 0,0 km/h (0 Bft)
16.10.2013 02:14 8,9 C 7,8 C 99 % 1010,2 hPa 0,0 l/m 0 min 0 min 0,0 UV-I 0 W/m 2,6 km/h (1 Bft)
16.10.2013 02:16 8,9 C 7,8 C 99 % 1010,3 hPa 0,0 l/m 0 min 0 min 0,0 UV-I 0 W/m 5,1 km/h (1 Bft)
16.10.2013 02:18 8,9 C 7,8 C 99 % 1010,3 hPa 0,0 l/m 0 min 0 min 0,0 UV-I 0 W/m 7,7 km/h (2 Bft)
16.10.2013 02:20 8,9 C 7,8 C 99 % 1010,4 hPa 0,0 l/m 0 min 0 min 0,0 UV-I 0 W/m 5,1 km/h (1 Bft)
16.10.2013 02:22 8,9 C 7,8 C 99 % 1010,5 hPa 0,0 l/m 0 min 0 min 0,0 UV-I 0 W/m 0,0 km/h (0 Bft)
16.10.2013 02:24 8,9 C 7,8 C 99 % 1010,5 hPa 0,0 l/m 0 min 0 min 0,0 UV-I 0 W/m 0,0 km/h (0 Bft)
16.10.2013 02:26 8,9 C 7,8 C 99 % 1010,6 hPa 0,0 l/m 0 min 0 min 0,0 UV-I 0 W/m 0,0 km/h (0 Bft)
16.10.2013 02:28 8,9 C 7,8 C 99 % 1010,5 hPa 0,0 l/m 0 min 0 min 0,0 UV-I 0 W/m 0,0 km/h (0 Bft)
16.10.2013 02:30 9,0 C 7,8 C 99 % 1010,6 hPa 0,0 l/m 0 min 0 min 0,0 UV-I 0 W/m 0,0 km/h (0 Bft)
16.10.2013 02:32 9,0 C 7,8 C 99 % 1010,6 hPa 0,0 l/m 0 min 0 min 0,0 UV-I 0 W/m 0,0 km/h (0 Bft)
16.10.2013 02:34 9,0 C 7,8 C 99 % 1010,6 hPa 0,0 l/m 0 min 0 min 0,0 UV-I 0 W/m 0,0 km/h (0 Bft)
16.10.2013 02:36 9,0 C 7,8 C 99 % 1010,7 hPa 0,0 l/m 0 min 0 min 0,0 UV-I 0 W/m 7,7 km/h (2 Bft)
16.10.2013 02:38 8,9 C 7,8 C 99 % 1010,7 hPa 0,0 l/m 0 min 0 min 0,0 UV-I 0 W/m 0,0 km/h (0 Bft)
16.10.2013 02:40 8,9 C 7,8 C 99 % 1010,7 hPa 0,0 l/m 0 min 0 min 0,0 UV-I 0 W/m 2,6 km/h (1 Bft)
16.10.2013 02:42 8,9 C 7,8 C 99 % 1010,8 hPa 0,0 l/m 0 min 0 min 0,0 UV-I 0 W/m 5,1 km/h (1 Bft)
16.10.2013 02:44 8,9 C 7,8 C 99 % 1010,8 hPa 0,0 l/m 0 min 0 min 0,0 UV-I 0 W/m 0,0 km/h (0 Bft)
16.10.2013 02:46 8,9 C 7,8 C 99 % 1010,8 hPa 0,0 l/m 0 min 0 min 0,0 UV-I 0 W/m 0,0 km/h (0 Bft)
16.10.2013 02:48 8,9 C 7,8 C 99 % 1010,9 hPa 0,0 l/m 0 min 0 min 0,0 UV-I 0 W/m 0,0 km/h (0 Bft)
16.10.2013 02:50 8,9 C 7,8 C 99 % 1010,9 hPa 0,0 l/m 0 min 0 min 0,0 UV-I 0 W/m 0,0 km/h (0 Bft)
16.10.2013 02:52 8,9 C 7,8 C 99 % 1010,9 hPa 0,0 l/m 0 min 0 min 0,0 UV-I 0 W/m 5,1 km/h (1 Bft)
16.10.2013 02:54 8,8 C 7,8 C 99 % 1011,0 hPa 0,0 l/m 0 min 0 min 0,0 UV-I 0 W/m 0,0 km/h (0 Bft)
16.10.2013 02:56 8,8 C 7,8 C 99 % 1011,0 hPa 0,0 l/m 0 min 0 min 0,0 UV-I 0 W/m 2,6 km/h (1 Bft)
16.10.2013 02:58 8,8 C 7,8 C 99 % 1011,0 hPa 0,0 l/m 0 min 0 min 0,0 UV-I 0 W/m 0,0 km/h (0 Bft)
16.10.2013 03:00 8,8 C 7,8 C 99 % 1011,1 hPa 0,0 l/m 0 min 0 min 0,0 UV-I 0 W/m 0,0 km/h (0 Bft)
16.10.2013 03:02 8,8 C 7,8 C 99 % 1011,1 hPa 0,0 l/m 0 min 0 min 0,0 UV-I 0 W/m 0,0 km/h (0 Bft)
16.10.2013 03:06 8,7 C 7,8 C 99 % 1011,1 hPa 0,0 l/m 0 min 0 min 0,0 UV-I 0 W/m 2,6 km/h (1 Bft)
16.10.2013 03:08 8,7 C 7,8 C 99 % 1011,1 hPa 0,0 l/m 0 min 0 min 0,0 UV-I 0 W/m 5,1 km/h (1 Bft)
16.10.2013 03:10 8,7 C 7,8 C 99 % 1011,1 hPa 0,0 l/m 0 min 0 min 0,0 UV-I 0 W/m 7,7 km/h (2 Bft)
16.10.2013 03:12 8,7 C 7,8 C 99 % 1011,2 hPa 0,0 l/m 0 min 0 min 0,0 UV-I 0 W/m 0,0 km/h (0 Bft)
16.10.2013 03:14 8,6 C 7,8 C 99 % 1011,1 hPa 0,0 l/m 0 min 0 min 0,0 UV-I 0 W/m 0,0 km/h (0 Bft)
16.10.2013 03:16 8,6 C 7,8 C 99 % 1011,1 hPa 0,0 l/m 0 min 0 min 0,0 UV-I 0 W/m 0,0 km/h (0 Bft)
16.10.2013 03:18 8,6 C 7,8 C 99 % 1011,2 hPa 0,0 l/m 0 min 0 min 0,0 UV-I 0 W/m 0,0 km/h (0 Bft)
16.10.2013 03:20 8,6 C 7,8 C 99 % 1011,2 hPa 0,0 l/m 0 min 0 min 0,0 UV-I 0 W/m 2,6 km/h (1 Bft)
16.10.2013 03:22 8,6 C 7,8 C 99 % 1011,2 hPa 0,0 l/m 0 min 0 min 0,0 UV-I 0 W/m 0,0 km/h (0 Bft)
16.10.2013 03:24 8,6 C 7,8 C 99 % 1011,2 hPa 0,0 l/m 0 min 0 min 0,0 UV-I 0 W/m 0,0 km/h (0 Bft)
16.10.2013 03:26 8,6 C 7,8 C 99 % 1011,2 hPa 0,0 l/m 0 min 0 min 0,0 UV-I 0 W/m 5,1 km/h (1 Bft)
16.10.2013 03:28 8,6 C 7,8 C 99 % 1011,3 hPa 0,0 l/m 0 min 0 min 0,0 UV-I 0 W/m 2,6 km/h (1 Bft)
16.10.2013 03:30 8,6 C 7,8 C 99 % 1011,3 hPa 0,0 l/m 0 min 0 min 0,0 UV-I 0 W/m 0,0 km/h (0 Bft)
16.10.2013 03:32 8,6 C 7,8 C 99 % 1011,3 hPa 0,0 l/m 0 min 0 min 0,0 UV-I 0 W/m 2,6 km/h (1 Bft)
16.10.2013 03:34 8,6 C 7,8 C 99 % 1011,3 hPa 0,0 l/m 0 min 0 min 0,0 UV-I 0 W/m 0,0 km/h (0 Bft)
16.10.2013 03:36 8,6 C 7,8 C 99 % 1011,3 hPa 0,0 l/m 0 min 0 min 0,0 UV-I 0 W/m 0,0 km/h (0 Bft)
16.10.2013 03:38 8,6 C 7,8 C 99 % 1011,3 hPa 0,0 l/m 0 min 0 min 0,0 UV-I 0 W/m 0,0 km/h (0 Bft)
16.10.2013 03:40 8,5 C 7,8 C 99 % 1011,3 hPa 0,0 l/m 0 min 0 min 0,0 UV-I 0 W/m 0,0 km/h (0 Bft)
16.10.2013 03:42 8,5 C 7,8 C 99 % 1011,3 hPa 0,0 l/m 0 min 0 min 0,0 UV-I 0 W/m 2,6 km/h (1 Bft)
16.10.2013 03:44 8,5 C 7,8 C 99 % 1011,3 hPa 0,0 l/m 0 min 0 min 0,0 UV-I 0 W/m 0,0 km/h (0 Bft)
16.10.2013 03:46 8,4 C 7,8 C 99 % 1011,3 hPa 0,0 l/m 0 min 0 min 0,0 UV-I 0 W/m 0,0 km/h (0 Bft)
16.10.2013 03:48 8,4 C 7,8 C 99 % 1011,3 hPa 0,0 l/m 0 min 0 min 0,0 UV-I 0 W/m 0,0 km/h (0 Bft)
16.10.2013 03:50 8,4 C 7,8 C 99 % 1011,3 hPa 0,0 l/m 0 min 0 min 0,0 UV-I 0 W/m 0,0 km/h (0 Bft)
16.10.2013 03:52 8,4 C 7,8 C 99 % 1011,3 hPa 0,0 l/m 0 min 0 min 0,0 UV-I 0 W/m 0,0 km/h (0 Bft)
16.10.2013 03:54 8,4 C 7,2 C 99 % 1011,4 hPa 0,0 l/m 0 min 0 min 0,0 UV-I 0 W/m 0,0 km/h (0 Bft)
16.10.2013 03:56 8,4 C 7,2 C 99 % 1011,4 hPa 0,0 l/m 0 min 0 min 0,0 UV-I 0 W/m 0,0 km/h (0 Bft)
16.10.2013 03:58 8,4 C 7,8 C 99 % 1011,5 hPa 0,0 l/m 0 min 0 min 0,0 UV-I 0 W/m 0,0 km/h (0 Bft)
16.10.2013 04:00 8,4 C 7,8 C 99 % 1011,5 hPa 0,0 l/m 0 min 0 min 0,0 UV-I 0 W/m 0,0 km/h (0 Bft)
16.10.2013 04:05 8,4 C 7,8 C 99 % 1011,6 hPa 0,0 l/m 0 min 0 min 0,0 UV-I 0 W/m 0,0 km/h (0 Bft)
16.10.2013 04:06 8,4 C 7,8 C 99 % 1011,6 hPa 0,0 l/m 0 min 0 min 0,0 UV-I 0 W/m 0,0 km/h (0 Bft)
16.10.2013 04:08 8,4 C 7,8 C 99 % 1011,6 hPa 0,0 l/m 0 min 0 min 0,0 UV-I 0 W/m 0,0 km/h (0 Bft)
16.10.2013 04:10 8,4 C 7,2 C 99 % 1011,5 hPa 0,0 l/m 0 min 0 min 0,0 UV-I 0 W/m 0,0 km/h (0 Bft)
16.10.2013 04:12 8,4 C 7,8 C 99 % 1011,6 hPa 0,0 l/m 0 min 0 min 0,0 UV-I 0 W/m 0,0 km/h (0 Bft)
16.10.2013 04:14 8,4 C 7,8 C 99 % 1011,6 hPa 0,0 l/m 0 min 0 min 0,0 UV-I 0 W/m 0,0 km/h (0 Bft)
16.10.2013 04:16 8,3 C 7,2 C 99 % 1011,6 hPa 0,0 l/m 0 min 0 min 0,0 UV-I 0 W/m 0,0 km/h (0 Bft)
16.10.2013 04:18 8,3 C 7,2 C 99 % 1011,6 hPa 0,0 l/m 0 min 0 min 0,0 UV-I 0 W/m 0,0 km/h (0 Bft)
16.10.2013 04:20 8,3 C 7,8 C 99 % 1011,6 hPa 0,0 l/m 0 min 0 min 0,0 UV-I 0 W/m 0,0 km/h (0 Bft)
16.10.2013 04:22 8,4 C 7,8 C 99 % 1011,6 hPa 0,0 l/m 0 min 0 min 0,0 UV-I 0 W/m 0,0 km/h (0 Bft)
16.10.2013 04:24 8,4 C 7,8 C 99 % 1011,7 hPa 0,0 l/m 0 min 0 min 0,0 UV-I 0 W/m 0,0 km/h (0 Bft)
16.10.2013 04:26 8,4 C 7,2 C 99 % 1011,6 hPa 0,0 l/m 0 min 0 min 0,0 UV-I 0 W/m 0,0 km/h (0 Bft)
16.10.2013 04:28 8,4 C 7,8 C 99 % 1011,7 hPa 0,0 l/m 0 min 0 min 0,0 UV-I 0 W/m 0,0 km/h (0 Bft)
16.10.2013 04:30 8,3 C 7,2 C 99 % 1011,7 hPa 0,0 l/m 0 min 0 min 0,0 UV-I 0 W/m 0,0 km/h (0 Bft)
16.10.2013 04:32 8,3 C 7,8 C 99 % 1011,7 hPa 0,0 l/m 0 min 0 min 0,0 UV-I 0 W/m 0,0 km/h (0 Bft)
16.10.2013 04:34 8,3 C 7,2 C 99 % 1011,7 hPa 0,0 l/m 0 min 0 min 0,0 UV-I 0 W/m 0,0 km/h (0 Bft)
16.10.2013 04:36 8,3 C 7,2 C 99 % 1011,7 hPa 0,0 l/m 0 min 0 min 0,0 UV-I 0 W/m 0,0 km/h (0 Bft)
16.10.2013 04:38 8,3 C 7,2 C 99 % 1011,7 hPa 0,0 l/m 0 min 0 min 0,0 UV-I 0 W/m 0,0 km/h (0 Bft)
16.10.2013 04:40 8,3 C 7,2 C 99 % 1011,7 hPa 0,0 l/m 0 min 0 min 0,0 UV-I 0 W/m 2,6 km/h (1 Bft)
16.10.2013 04:42 8,3 C 7,2 C 99 % 1011,8 hPa 0,0 l/m 0 min 0 min 0,0 UV-I 0 W/m 2,6 km/h (1 Bft)
16.10.2013 04:44 8,3 C 7,2 C 99 % 1011,9 hPa 0,0 l/m 0 min 0 min 0,0 UV-I 0 W/m 0,0 km/h (0 Bft)
16.10.2013 04:46 8,3 C 7,2 C 99 % 1011,9 hPa 0,0 l/m 0 min 0 min 0,0 UV-I 0 W/m 0,0 km/h (0 Bft)
16.10.2013 04:48 8,3 C 7,2 C 99 % 1011,9 hPa 0,0 l/m 0 min 0 min 0,0 UV-I 0 W/m 2,6 km/h (1 Bft)
16.10.2013 04:50 8,2 C 7,2 C 99 % 1011,9 hPa 0,0 l/m 0 min 0 min 0,0 UV-I 0 W/m 0,0 km/h (0 Bft)
16.10.2013 04:52 8,2 C 7,2 C 99 % 1012,0 hPa 0,0 l/m 0 min 0 min 0,0 UV-I 0 W/m 0,0 km/h (0 Bft)
16.10.2013 04:54 8,2 C 7,2 C 99 % 1012,0 hPa 0,0 l/m 0 min 0 min 0,0 UV-I 0 W/m 2,6 km/h (1 Bft)
16.10.2013 04:56 8,2 C 7,2 C 99 % 1012,1 hPa 0,0 l/m 0 min 0 min 0,0 UV-I 0 W/m 0,0 km/h (0 Bft)
16.10.2013 04:58 8,2 C 7,2 C 99 % 1012,1 hPa 0,0 l/m 0 min 0 min 0,0 UV-I 0 W/m 0,0 km/h (0 Bft)
16.10.2013 05:00 8,2 C 7,2 C 99 % 1012,1 hPa 0,0 l/m 0 min 0 min 0,0 UV-I 0 W/m 0,0 km/h (0 Bft)
16.10.2013 05:02 8,2 C 7,2 C 99 % 1012,1 hPa 0,0 l/m 0 min 0 min 0,0 UV-I 0 W/m 0,0 km/h (0 Bft)
16.10.2013 05:06 8,2 C 7,2 C 99 % 1012,0 hPa 0,0 l/m 0 min 0 min 0,0 UV-I 0 W/m 0,0 km/h (0 Bft)
16.10.2013 05:08 8,2 C 7,2 C 99 % 1012,1 hPa 0,0 l/m 0 min 0 min 0,0 UV-I 0 W/m 0,0 km/h (0 Bft)
16.10.2013 05:10 8,2 C 7,2 C 99 % 1012,2 hPa 0,0 l/m 0 min 0 min 0,0 UV-I 0 W/m 0,0 km/h (0 Bft)
16.10.2013 05:12 8,2 C 7,2 C 99 % 1012,2 hPa 0,0 l/m 0 min 0 min 0,0 UV-I 0 W/m 0,0 km/h (0 Bft)
16.10.2013 05:14 8,2 C 7,2 C 99 % 1012,2 hPa 0,0 l/m 0 min 0 min 0,0 UV-I 0 W/m 0,0 km/h (0 Bft)
16.10.2013 05:16 8,2 C 7,2 C 99 % 1012,3 hPa 0,0 l/m 0 min 0 min 0,0 UV-I 0 W/m 0,0 km/h (0 Bft)
16.10.2013 05:18 8,2 C 7,2 C 99 % 1012,3 hPa 0,0 l/m 0 min 0 min 0,0 UV-I 0 W/m 0,0 km/h (0 Bft)
16.10.2013 05:20 8,2 C 7,2 C 99 % 1012,2 hPa 0,0 l/m 0 min 0 min 0,0 UV-I 0 W/m 5,1 km/h (1 Bft)
16.10.2013 05:22 8,2 C 7,2 C 99 % 1012,2 hPa 0,0 l/m 0 min 0 min 0,0 UV-I 0 W/m 0,0 km/h (0 Bft)
16.10.2013 05:24 8,2 C 7,2 C 99 % 1012,2 hPa 0,0 l/m 0 min 0 min 0,0 UV-I 0 W/m 0,0 km/h (0 Bft)
16.10.2013 05:26 8,2 C 7,2 C 99 % 1012,2 hPa 0,0 l/m 0 min 0 min 0,0 UV-I 0 W/m 0,0 km/h (0 Bft)
16.10.2013 05:28 8,2 C 7,2 C 99 % 1012,3 hPa 0,0 l/m 0 min 0 min 0,0 UV-I 0 W/m 0,0 km/h (0 Bft)
16.10.2013 05:30 8,2 C 7,2 C 99 % 1012,3 hPa 0,0 l/m 0 min 0 min 0,0 UV-I 0 W/m 0,0 km/h (0 Bft)
16.10.2013 05:32 8,2 C 7,2 C 99 % 1012,3 hPa 0,0 l/m 0 min 0 min 0,0 UV-I 0 W/m 0,0 km/h (0 Bft)
16.10.2013 05:34 8,2 C 7,2 C 99 % 1012,4 hPa 0,0 l/m 0 min 0 min 0,0 UV-I 0 W/m 0,0 km/h (0 Bft)
16.10.2013 05:36 8,2 C 7,2 C 99 % 1012,3 hPa 0,0 l/m 0 min 0 min 0,0 UV-I 0 W/m 0,0 km/h (0 Bft)
16.10.2013 05:38 8,2 C 7,2 C 99 % 1012,3 hPa 0,0 l/m 0 min 0 min 0,0 UV-I 0 W/m 0,0 km/h (0 Bft)
16.10.2013 05:40 8,2 C 7,2 C 99 % 1012,4 hPa 0,0 l/m 0 min 0 min 0,0 UV-I 0 W/m 0,0 km/h (0 Bft)
16.10.2013 05:42 8,2 C 7,2 C 99 % 1012,4 hPa 0,0 l/m 0 min 0 min 0,0 UV-I 0 W/m 0,0 km/h (0 Bft)
16.10.2013 05:44 8,2 C 7,2 C 99 % 1012,4 hPa 0,0 l/m 0 min 0 min 0,0 UV-I 0 W/m 0,0 km/h (0 Bft)
16.10.2013 05:46 8,2 C 7,2 C 99 % 1012,3 hPa 0,0 l/m 0 min 0 min 0,0 UV-I 0 W/m 0,0 km/h (0 Bft)
16.10.2013 05:48 8,2 C 7,2 C 99 % 1012,3 hPa 0,0 l/m 0 min 0 min 0,0 UV-I 0 W/m 2,6 km/h (1 Bft)
16.10.2013 05:50 8,1 C 7,2 C 99 % 1012,3 hPa 0,0 l/m 0 min 0 min 0,0 UV-I 0 W/m 0,0 km/h (0 Bft)
16.10.2013 05:52 8,1 C 7,2 C 99 % 1012,3 hPa 0,0 l/m 0 min 0 min 0,0 UV-I 0 W/m 0,0 km/h (0 Bft)
16.10.2013 05:54 8,1 C 7,2 C 99 % 1012,3 hPa 0,0 l/m 0 min 0 min 0,0 UV-I 0 W/m 0,0 km/h (0 Bft)
16.10.2013 05:56 8,1 C 7,2 C 99 % 1012,3 hPa 0,0 l/m 0 min 0 min 0,0 UV-I 0 W/m 0,0 km/h (0 Bft)
16.10.2013 05:58 8,1 C 7,2 C 99 % 1012,3 hPa 0,0 l/m 0 min 0 min 0,0 UV-I 0 W/m 0,0 km/h (0 Bft)
16.10.2013 06:00 8,0 C 7,2 C 99 % 1012,3 hPa 0,0 l/m 0 min 0 min 0,0 UV-I 0 W/m 0,0 km/h (0 Bft)
16.10.2013 06:02 8,0 C 7,2 C 99 % 1012,3 hPa 0,0 l/m 0 min 0 min 0,0 UV-I 0 W/m 0,0 km/h (0 Bft)
16.10.2013 06:06 8,0 C 7,2 C 99 % 1012,4 hPa 0,0 l/m 0 min 0 min 0,0 UV-I 0 W/m 0,0 km/h (0 Bft)
16.10.2013 06:08 8,1 C 7,2 C 99 % 1012,4 hPa 0,0 l/m 0 min 0 min 0,0 UV-I 0 W/m 0,0 km/h (0 Bft)
16.10.2013 06:10 8,1 C 7,2 C 99 % 1012,4 hPa 0,0 l/m 0 min 0 min 0,0 UV-I 0 W/m 0,0 km/h (0 Bft)
16.10.2013 06:12 8,1 C 7,2 C 99 % 1012,5 hPa 0,0 l/m 0 min 0 min 0,0 UV-I 0 W/m 0,0 km/h (0 Bft)
16.10.2013 06:14 8,1 C 7,2 C 99 % 1012,5 hPa 0,0 l/m 0 min 0 min 0,0 UV-I 0 W/m 7,7 km/h (2 Bft)
16.10.2013 06:16 8,0 C 7,2 C 99 % 1012,5 hPa 0,0 l/m 0 min 0 min 0,0 UV-I 0 W/m 0,0 km/h (0 Bft)
16.10.2013 06:18 8,0 C 7,2 C 99 % 1012,5 hPa 0,0 l/m 0 min 0 min 0,0 UV-I 0 W/m 0,0 km/h (0 Bft)
16.10.2013 06:20 8,0 C 7,2 C 99 % 1012,6 hPa 0,0 l/m 0 min 0 min 0,0 UV-I 0 W/m 0,0 km/h (0 Bft)
16.10.2013 06:22 8,0 C 7,2 C 99 % 1012,6 hPa 0,0 l/m 0 min 0 min 0,0 UV-I 0 W/m 0,0 km/h (0 Bft)
16.10.2013 06:24 8,0 C 7,2 C 99 % 1012,7 hPa 0,0 l/m 0 min 0 min 0,0 UV-I 0 W/m 0,0 km/h (0 Bft)
16.10.2013 06:26 8,0 C 7,2 C 99 % 1012,7 hPa 0,0 l/m 0 min 0 min 0,0 UV-I 0 W/m 0,0 km/h (0 Bft)
16.10.2013 06:28 8,0 C 7,2 C 99 % 1012,7 hPa 0,0 l/m 0 min 0 min 0,0 UV-I 0 W/m 0,0 km/h (0 Bft)
16.10.2013 06:30 8,0 C 7,2 C 99 % 1012,7 hPa 0,0 l/m 0 min 0 min 0,0 UV-I 0 W/m 0,0 km/h (0 Bft)
16.10.2013 06:32 8,0 C 7,2 C 99 % 1012,7 hPa 0,0 l/m 0 min 0 min 0,0 UV-I 0 W/m 0,0 km/h (0 Bft)
16.10.2013 06:34 8,0 C 7,2 C 99 % 1012,7 hPa 0,0 l/m 0 min 0 min 0,0 UV-I 0 W/m 0,0 km/h (0 Bft)
16.10.2013 06:36 8,1 C 7,2 C 99 % 1012,7 hPa 0,0 l/m 0 min 0 min 0,0 UV-I 0 W/m 0,0 km/h (0 Bft)
16.10.2013 06:38 8,1 C 7,2 C 99 % 1012,7 hPa 0,0 l/m 0 min 0 min 0,0 UV-I 0 W/m 0,0 km/h (0 Bft)
16.10.2013 06:40 8,0 C 7,2 C 99 % 1012,8 hPa 0,0 l/m 0 min 0 min 0,0 UV-I 0 W/m 7,7 km/h (2 Bft)
16.10.2013 06:42 8,0 C 7,2 C 99 % 1012,8 hPa 0,0 l/m 0 min 0 min 0,0 UV-I 0 W/m 0,0 km/h (0 Bft)
16.10.2013 06:44 7,9 C 7,2 C 99 % 1012,7 hPa 0,0 l/m 0 min 0 min 0,0 UV-I 0 W/m 0,0 km/h (0 Bft)
16.10.2013 06:46 8,0 C 7,2 C 99 % 1012,8 hPa 0,0 l/m 0 min 0 min 0,0 UV-I 0 W/m 2,6 km/h (1 Bft)
16.10.2013 06:48 8,0 C 7,2 C 99 % 1012,8 hPa 0,0 l/m 0 min 0 min 0,0 UV-I 0 W/m 2,6 km/h (1 Bft)
16.10.2013 06:50 7,9 C 7,2 C 99 % 1012,8 hPa 0,0 l/m 0 min 0 min 0,0 UV-I 0 W/m 0,0 km/h (0 Bft)
16.10.2013 06:52 7,9 C 7,2 C 99 % 1012,9 hPa 0,0 l/m 0 min 0 min 0,0 UV-I 0 W/m 0,0 km/h (0 Bft)
16.10.2013 06:54 7,9 C 7,2 C 99 % 1012,9 hPa 0,0 l/m 0 min 0 min 0,0 UV-I 0 W/m 0,0 km/h (0 Bft)
16.10.2013 06:56 7,9 C 7,2 C 99 % 1013,0 hPa 0,0 l/m 0 min 0 min 0,0 UV-I 0 W/m 0,0 km/h (0 Bft)
16.10.2013 06:58 7,9 C 7,2 C 99 % 1013,0 hPa 0,0 l/m 0 min 0 min 0,0 UV-I 0 W/m 0,0 km/h (0 Bft)
16.10.2013 07:00 7,9 C 7,2 C 99 % 1013,0 hPa 0,0 l/m 0 min 0 min 0,0 UV-I 0 W/m 0,0 km/h (0 Bft)
16.10.2013 07:02 7,9 C 7,2 C 99 % 1013,0 hPa 0,0 l/m 0 min 0 min 0,0 UV-I 0 W/m 0,0 km/h (0 Bft)
16.10.2013 07:06 7,9 C 7,2 C 99 % 1013,0 hPa 0,0 l/m 0 min 0 min 0,0 UV-I 0 W/m 0,0 km/h (0 Bft)
16.10.2013 07:08 7,9 C 7,2 C 99 % 1012,9 hPa 0,0 l/m 0 min 0 min 0,0 UV-I 0 W/m 0,0 km/h (0 Bft)
16.10.2013 07:10 7,9 C 7,2 C 99 % 1012,9 hPa 0,0 l/m 0 min 0 min 0,0 UV-I 0 W/m 0,0 km/h (0 Bft)
16.10.2013 07:12 7,9 C 7,2 C 99 % 1012,9 hPa 0,0 l/m 0 min 0 min 0,0 UV-I 0 W/m 0,0 km/h (0 Bft)
16.10.2013 07:14 7,9 C 7,2 C 99 % 1012,9 hPa 0,0 l/m 0 min 0 min 0,0 UV-I 0 W/m 0,0 km/h (0 Bft)
16.10.2013 07:16 7,9 C 7,2 C 99 % 1013,0 hPa 0,0 l/m 0 min 0 min 0,0 UV-I 0 W/m 0,0 km/h (0 Bft)
16.10.2013 07:18 7,9 C 7,2 C 99 % 1012,9 hPa 0,0 l/m 0 min 0 min 0,0 UV-I 0 W/m 0,0 km/h (0 Bft)
16.10.2013 07:20 7,9 C 7,2 C 99 % 1013,0 hPa 0,0 l/m 0 min 0 min 0,0 UV-I 0 W/m 0,0 km/h (0 Bft)
16.10.2013 07:22 7,9 C 7,2 C 99 % 1013,0 hPa 0,0 l/m 0 min 0 min 0,0 UV-I 0 W/m 0,0 km/h (0 Bft)
16.10.2013 07:24 7,9 C 7,2 C 99 % 1013,0 hPa 0,0 l/m 0 min 0 min 0,0 UV-I 0 W/m 0,0 km/h (0 Bft)
16.10.2013 07:26 7,9 C 7,2 C 99 % 1013,1 hPa 0,0 l/m 0 min 0 min 0,0 UV-I 0 W/m 0,0 km/h (0 Bft)
16.10.2013 07:28 7,9 C 7,2 C 99 % 1013,2 hPa 0,0 l/m 0 min 0 min 0,0 UV-I 0 W/m 2,6 km/h (1 Bft)
16.10.2013 07:30 7,9 C 7,2 C 99 % 1013,2 hPa 0,0 l/m 0 min 0 min 0,0 UV-I 0 W/m 0,0 km/h (0 Bft)
16.10.2013 07:32 7,9 C 7,2 C 99 % 1013,2 hPa 0,0 l/m 0 min 0 min 0,0 UV-I 0 W/m 0,0 km/h (0 Bft)
16.10.2013 07:34 7,9 C 7,2 C 99 % 1013,2 hPa 0,0 l/m 0 min 0 min 0,0 UV-I 0 W/m 0,0 km/h (0 Bft)
16.10.2013 07:36 7,9 C 7,2 C 99 % 1013,2 hPa 0,0 l/m 0 min 0 min 0,0 UV-I 0 W/m 0,0 km/h (0 Bft)
16.10.2013 07:38 7,9 C 7,2 C 99 % 1013,2 hPa 0,0 l/m 0 min 0 min 0,0 UV-I 0 W/m 0,0 km/h (0 Bft)
16.10.2013 07:40 7,9 C 7,2 C 99 % 1013,2 hPa 0,0 l/m 0 min 0 min 0,0 UV-I 0 W/m 0,0 km/h (0 Bft)
16.10.2013 07:42 7,9 C 7,2 C 99 % 1013,2 hPa 0,0 l/m 0 min 0 min 0,0 UV-I 0 W/m 0,0 km/h (0 Bft)
16.10.2013 07:44 7,9 C 7,2 C 99 % 1013,2 hPa 0,0 l/m 0 min 0 min 0,0 UV-I 0 W/m 0,0 km/h (0 Bft)
16.10.2013 07:46 7,9 C 7,2 C 99 % 1013,2 hPa 0,0 l/m 0 min 0 min 0,0 UV-I 0 W/m 0,0 km/h (0 Bft)
16.10.2013 07:48 7,9 C 7,2 C 99 % 1013,1 hPa 0,0 l/m 0 min 0 min 0,0 UV-I 0 W/m 5,1 km/h (1 Bft)
16.10.2013 07:50 7,9 C 7,2 C 99 % 1013,1 hPa 0,0 l/m 0 min 0 min 0,0 UV-I 0 W/m 0,0 km/h (0 Bft)
16.10.2013 07:52 7,9 C 7,2 C 99 % 1013,1 hPa 0,0 l/m 0 min 0 min 0,0 UV-I 0 W/m 0,0 km/h (0 Bft)
16.10.2013 07:54 7,9 C 7,2 C 99 % 1013,1 hPa 0,0 l/m 0 min 0 min 0,0 UV-I 0 W/m 5,1 km/h (1 Bft)
16.10.2013 07:56 7,9 C 7,2 C 99 % 1013,1 hPa 0,0 l/m 0 min 0 min 0,0 UV-I 0 W/m 0,0 km/h (0 Bft)
16.10.2013 07:58 7,9 C 7,2 C 99 % 1013,1 hPa 0,0 l/m 0 min 0 min 0,0 UV-I 0 W/m 0,0 km/h (0 Bft)
16.10.2013 08:00 7,9 C 7,2 C 99 % 1013,1 hPa 0,0 l/m 0 min 0 min 0,0 UV-I 0 W/m 0,0 km/h (0 Bft)
16.10.2013 08:02 7,9 C 7,2 C 99 % 1013,1 hPa 0,0 l/m 0 min 0 min 0,0 UV-I 0 W/m 0,0 km/h (0 Bft)
16.10.2013 08:06 7,9 C 7,2 C 99 % 1013,1 hPa 0,0 l/m 0 min 0 min 0,0 UV-I 0 W/m 0,0 km/h (0 Bft)
16.10.2013 08:08 7,9 C 7,2 C 99 % 1013,2 hPa 0,0 l/m 0 min 0 min 0,0 UV-I 0 W/m 0,0 km/h (0 Bft)
16.10.2013 08:10 7,9 C 7,2 C 99 % 1013,3 hPa 0,0 l/m 0 min 0 min 0,0 UV-I 0 W/m 7,7 km/h (2 Bft)
16.10.2013 08:12 7,9 C 7,2 C 99 % 1013,4 hPa 0,0 l/m 0 min 0 min 0,0 UV-I 0 W/m 10,3 km/h (2 Bft)
16.10.2013 08:14 7,9 C 7,2 C 99 % 1013,3 hPa 0,0 l/m 0 min 0 min 0,0 UV-I 5 W/m 5,1 km/h (1 Bft)
16.10.2013 08:16 7,9 C 7,2 C 99 % 1013,3 hPa 0,0 l/m 0 min 0 min 0,0 UV-I 5 W/m 2,6 km/h (1 Bft)
16.10.2013 08:18 7,9 C 7,2 C 99 % 1013,3 hPa 0,0 l/m 0 min 0 min 0,0 UV-I 5 W/m 2,6 km/h (1 Bft)
16.10.2013 08:20 7,9 C 7,2 C 99 % 1013,2 hPa 0,0 l/m 0 min 0 min 0,0 UV-I 5 W/m 0,0 km/h (0 Bft)
16.10.2013 08:22 7,9 C 7,2 C 99 % 1013,2 hPa 0,0 l/m 0 min 0 min 0,0 UV-I 5 W/m 0,0 km/h (0 Bft)
16.10.2013 08:24 7,9 C 7,2 C 99 % 1013,3 hPa 0,0 l/m 0 min 0 min 0,0 UV-I 5 W/m 0,0 km/h (0 Bft)
16.10.2013 08:26 7,9 C 7,2 C 99 % 1013,3 hPa 0,0 l/m 0 min 0 min 0,0 UV-I 5 W/m 7,7 km/h (2 Bft)
16.10.2013 08:28 7,9 C 7,2 C 99 % 1013,3 hPa 0,0 l/m 0 min 0 min 0,0 UV-I 7 W/m 0,0 km/h (0 Bft)
16.10.2013 08:30 7,9 C 7,2 C 99 % 1013,3 hPa 0,0 l/m 0 min 0 min 0,0 UV-I 9 W/m 2,6 km/h (1 Bft)
16.10.2013 08:32 7,9 C 7,2 C 99 % 1013,4 hPa 0,0 l/m 0 min 0 min 0,0 UV-I 11 W/m 0,0 km/h (0 Bft)
16.10.2013 08:34 7,9 C 7,2 C 99 % 1013,3 hPa 0,0 l/m 0 min 0 min 0,0 UV-I 11 W/m 2,6 km/h (1 Bft)
16.10.2013 08:36 7,9 C 7,2 C 99 % 1013,4 hPa 0,0 l/m 0 min 0 min 0,0 UV-I 11 W/m 0,0 km/h (0 Bft)
16.10.2013 08:38 7,9 C 7,2 C 99 % 1013,5 hPa 0,0 l/m 0 min 0 min 0,0 UV-I 12 W/m 0,0 km/h (0 Bft)
16.10.2013 08:40 7,9 C 7,2 C 98 % 1013,5 hPa 0,0 l/m 0 min 0 min 0,0 UV-I 12 W/m 0,0 km/h (0 Bft)
16.10.2013 08:42 7,9 C 7,2 C 99 % 1013,6 hPa 0,0 l/m 0 min 0 min 0,0 UV-I 11 W/m 7,7 km/h (2 Bft)
16.10.2013 08:44 7,9 C 7,2 C 99 % 1013,6 hPa 0,0 l/m 0 min 0 min 0,0 UV-I 11 W/m 0,0 km/h (0 Bft)
16.10.2013 08:46 7,9 C 7,2 C 99 % 1013,7 hPa 0,0 l/m 0 min 0 min 0,0 UV-I 11 W/m 2,6 km/h (1 Bft)
16.10.2013 08:48 8,0 C 7,2 C 99 % 1013,7 hPa 0,0 l/m 0 min 0 min 0,0 UV-I 11 W/m 7,7 km/h (2 Bft)
16.10.2013 08:50 7,9 C 7,2 C 99 % 1013,8 hPa 0,0 l/m 0 min 0 min 0,0 UV-I 11 W/m 2,6 km/h (1 Bft)
16.10.2013 08:52 8,0 C 7,2 C 99 % 1013,9 hPa 0,0 l/m 0 min 0 min 0,0 UV-I 11 W/m 10,3 km/h (2 Bft)
16.10.2013 08:54 8,0 C 7,2 C 99 % 1013,9 hPa 0,0 l/m 0 min 0 min 0,0 UV-I 11 W/m 2,6 km/h (1 Bft)
16.10.2013 08:56 8,0 C 7,2 C 99 % 1013,9 hPa 0,0 l/m 0 min 0 min 0,0 UV-I 11 W/m 2,6 km/h (1 Bft)
16.10.2013 08:58 8,0 C 7,2 C 99 % 1013,9 hPa 0,0 l/m 0 min 0 min 0,0 UV-I 12 W/m 5,1 km/h (1 Bft)
16.10.2013 09:00 8,0 C 7,2 C 99 % 1013,9 hPa 0,0 l/m 0 min 0 min 0,0 UV-I 14 W/m 0,0 km/h (0 Bft)
16.10.2013 09:02 8,0 C 7,2 C 99 % 1013,9 hPa 0,0 l/m 0 min 0 min 0,0 UV-I 16 W/m 5,1 km/h (1 Bft)
16.10.2013 09:06 8,1 C 7,2 C 99 % 1014,0 hPa 0,0 l/m 0 min 0 min 0,0 UV-I 18 W/m 0,0 km/h (0 Bft)
16.10.2013 09:08 8,1 C 7,2 C 99 % 1013,9 hPa 0,0 l/m 0 min 0 min 0,0 UV-I 16 W/m 0,0 km/h (0 Bft)
16.10.2013 09:10 8,1 C 7,2 C 99 % 1014,0 hPa 0,0 l/m 0 min 0 min 0,0 UV-I 16 W/m 2,6 km/h (1 Bft)
16.10.2013 09:12 8,1 C 7,2 C 99 % 1014,1 hPa 0,0 l/m 0 min 0 min 0,0 UV-I 19 W/m 5,1 km/h (1 Bft)
16.10.2013 09:14 8,1 C 7,2 C 99 % 1014,1 hPa 0,0 l/m 0 min 0 min 0,0 UV-I 21 W/m 7,7 km/h (2 Bft)
16.10.2013 09:16 8,1 C 7,2 C 99 % 1014,1 hPa 0,0 l/m 0 min 0 min 0,0 UV-I 21 W/m 5,1 km/h (1 Bft)
16.10.2013 09:18 8,1 C 7,2 C 99 % 1014,1 hPa 0,0 l/m 0 min 0 min 0,0 UV-I 19 W/m 0,0 km/h (0 Bft)
16.10.2013 09:20 8,1 C 7,2 C 99 % 1014,2 hPa 0,0 l/m 0 min 0 min 0,0 UV-I 21 W/m 5,1 km/h (1 Bft)
16.10.2013 09:22 8,1 C 7,2 C 99 % 1014,2 hPa 0,0 l/m 0 min 0 min 0,0 UV-I 21 W/m 2,6 km/h (1 Bft)
16.10.2013 09:24 8,1 C 7,2 C 99 % 1014,2 hPa 0,0 l/m 0 min 0 min 0,0 UV-I 23 W/m 0,0 km/h (0 Bft)
16.10.2013 09:26 8,1 C 7,2 C 99 % 1014,4 hPa 0,0 l/m 0 min 0 min 0,0 UV-I 21 W/m 0,0 km/h (0 Bft)
16.10.2013 09:28 8,2 C 7,2 C 98 % 1014,3 hPa 0,0 l/m 0 min 0 min 0,0 UV-I 23 W/m 0,0 km/h (0 Bft)
16.10.2013 09:30 8,2 C 7,2 C 98 % 1014,3 hPa 0,0 l/m 0 min 0 min 0,0 UV-I 25 W/m 0,0 km/h (0 Bft)
16.10.2013 09:32 8,2 C 7,2 C 98 % 1014,3 hPa 0,0 l/m 0 min 0 min 0,0 UV-I 23 W/m 0,0 km/h (0 Bft)
16.10.2013 09:34 8,2 C 7,2 C 98 % 1014,3 hPa 0,0 l/m 0 min 0 min 0,0 UV-I 21 W/m 10,3 km/h (2 Bft)
16.10.2013 09:36 8,2 C 7,2 C 98 % 1014,3 hPa 0,0 l/m 0 min 0 min 0,0 UV-I 23 W/m 2,6 km/h (1 Bft)
16.10.2013 09:38 8,2 C 7,2 C 98 % 1014,3 hPa 0,0 l/m 0 min 0 min 0,0 UV-I 25 W/m 2,6 km/h (1 Bft)
16.10.2013 09:40 8,2 C 7,2 C 98 % 1014,2 hPa 0,0 l/m 0 min 0 min 0,0 UV-I 30 W/m 7,7 km/h (2 Bft)
16.10.2013 09:42 8,2 C 7,2 C 98 % 1014,2 hPa 0,0 l/m 0 min 0 min 0,0 UV-I 32 W/m 10,3 km/h (2 Bft)
16.10.2013 09:44 8,2 C 7,2 C 98 % 1014,2 hPa 0,0 l/m 0 min 0 min 0,0 UV-I 32 W/m 0,0 km/h (0 Bft)
16.10.2013 09:46 8,2 C 7,2 C 98 % 1014,3 hPa 0,0 l/m 0 min 0 min 0,0 UV-I 33 W/m 2,6 km/h (1 Bft)
16.10.2013 09:48 8,2 C 7,2 C 98 % 1014,3 hPa 0,0 l/m 0 min 0 min 0,0 UV-I 35 W/m 0,0 km/h (0 Bft)
16.10.2013 09:50 8,3 C 7,8 C 99 % 1014,3 hPa 0,0 l/m 0 min 0 min 0,0 UV-I 39 W/m 0,0 km/h (0 Bft)
16.10.2013 09:52 8,3 C 7,8 C 99 % 1014,3 hPa 0,0 l/m 0 min 0 min 0,0 UV-I 42 W/m 0,0 km/h (0 Bft)
16.10.2013 09:54 8,3 C 7,8 C 99 % 1014,3 hPa 0,0 l/m 0 min 0 min 0,0 UV-I 46 W/m 0,0 km/h (0 Bft)
16.10.2013 09:56 8,3 C 7,8 C 99 % 1014,3 hPa 0,0 l/m 0 min 0 min 0,0 UV-I 51 W/m 10,3 km/h (2 Bft)
16.10.2013 09:58 8,3 C 7,8 C 99 % 1014,3 hPa 0,0 l/m 0 min 0 min 0,0 UV-I 56 W/m 2,6 km/h (1 Bft)
16.10.2013 10:00 8,3 C 7,8 C 99 % 1014,2 hPa 0,0 l/m 0 min 0 min 0,0 UV-I 58 W/m 2,6 km/h (1 Bft)
16.10.2013 10:02 8,4 C 7,8 C 99 % 1014,3 hPa 0,0 l/m 0 min 0 min 0,0 UV-I 62 W/m 0,0 km/h (0 Bft)
16.10.2013 10:06 8,4 C 7,8 C 99 % 1014,3 hPa 0,0 l/m 0 min 0 min 0,0 UV-I 62 W/m 5,1 km/h (1 Bft)
16.10.2013 10:08 8,4 C 7,8 C 98 % 1014,4 hPa 0,0 l/m 0 min 0 min 0,0 UV-I 63 W/m 5,1 km/h (1 Bft)
16.10.2013 10:10 8,4 C 7,8 C 98 % 1014,4 hPa 0,0 l/m 0 min 0 min 0,0 UV-I 65 W/m 12,9 km/h (3 Bft)
16.10.2013 10:12 8,5 C 7,8 C 98 % 1014,3 hPa 0,0 l/m 0 min 0 min 0,0 UV-I 70 W/m 2,6 km/h (1 Bft)
16.10.2013 10:14 8,5 C 7,8 C 98 % 1014,3 hPa 0,0 l/m 0 min 0 min 0,0 UV-I 72 W/m 0,0 km/h (0 Bft)
16.10.2013 10:16 8,6 C 7,8 C 98 % 1014,3 hPa 0,0 l/m 0 min 0 min 0,0 UV-I 79 W/m 0,0 km/h (0 Bft)
16.10.2013 10:18 8,6 C 7,8 C 98 % 1014,3 hPa 0,0 l/m 0 min 0 min 0,0 UV-I 84 W/m 0,0 km/h (0 Bft)
16.10.2013 10:20 8,6 C 7,8 C 98 % 1014,3 hPa 0,0 l/m 0 min 0 min 0,0 UV-I 90 W/m 0,0 km/h (0 Bft)
16.10.2013 10:22 8,6 C 8,3 C 99 % 1014,3 hPa 0,0 l/m 0 min 0 min 0,0 UV-I 77 W/m 0,0 km/h (0 Bft)
16.10.2013 10:24 8,7 C 8,3 C 99 % 1014,3 hPa 0,0 l/m 0 min 0 min 0,0 UV-I 97 W/m 0,0 km/h (0 Bft)
16.10.2013 10:26 8,7 C 8,3 C 99 % 1014,4 hPa 0,0 l/m 0 min 0 min 0,0 UV-I 93 W/m 5,1 km/h (1 Bft)
16.10.2013 10:28 8,7 C 8,3 C 99 % 1014,3 hPa 0,0 l/m 0 min 0 min 0,0 UV-I 97 W/m 0,0 km/h (0 Bft)
16.10.2013 10:30 8,7 C 8,3 C 99 % 1014,4 hPa 0,0 l/m 0 min 0 min 0,0 UV-I 102 W/m 2,6 km/h (1 Bft)
16.10.2013 10:32 8,7 C 8,3 C 99 % 1014,4 hPa 0,0 l/m 0 min 0 min 0,0 UV-I 104 W/m 7,7 km/h (2 Bft)
16.10.2013 10:34 8,8 C 8,3 C 98 % 1014,4 hPa 0,0 l/m 0 min 0 min 0,0 UV-I 100 W/m 5,1 km/h (1 Bft)
16.10.2013 10:36 8,9 C 8,3 C 98 % 1014,4 hPa 0,0 l/m 0 min 0 min 0,0 UV-I 98 W/m 0,0 km/h (0 Bft)
16.10.2013 10:38 8,9 C 8,3 C 99 % 1014,4 hPa 0,0 l/m 0 min 0 min 0,0 UV-I 105 W/m 2,6 km/h (1 Bft)
16.10.2013 10:40 8,9 C 8,3 C 99 % 1014,4 hPa 0,0 l/m 0 min 0 min 0,0 UV-I 104 W/m 0,0 km/h (0 Bft)
16.10.2013 10:42 9,0 C 8,9 C 99 % 1014,4 hPa 0,0 l/m 0 min 0 min 0,0 UV-I 109 W/m 0,0 km/h (0 Bft)
16.10.2013 10:44 9,0 C 8,9 C 98 % 1014,4 hPa 0,0 l/m 0 min 0 min 0,0 UV-I 109 W/m 2,6 km/h (1 Bft)
16.10.2013 10:46 9,0 C 8,9 C 98 % 1014,4 hPa 0,0 l/m 0 min 0 min 0,0 UV-I 113 W/m 0,0 km/h (0 Bft)
16.10.2013 10:48 9,0 C 8,9 C 98 % 1014,4 hPa 0,0 l/m 0 min 0 min 0,0 UV-I 113 W/m 7,7 km/h (2 Bft)
16.10.2013 10:50 9,0 C 8,9 C 98 % 1014,4 hPa 0,0 l/m 0 min 0 min 0,0 UV-I 113 W/m 7,7 km/h (2 Bft)
16.10.2013 10:52 9,1 C 8,9 C 98 % 1014,3 hPa 0,0 l/m 0 min 0 min 0,0 UV-I 120 W/m 0,0 km/h (0 Bft)
16.10.2013 10:54 9,1 C 8,9 C 98 % 1014,3 hPa 0,0 l/m 0 min 0 min 0,0 UV-I 125 W/m 7,7 km/h (2 Bft)
16.10.2013 10:56 9,1 C 8,9 C 98 % 1014,3 hPa 0,0 l/m 0 min 0 min 0,0 UV-I 125 W/m 2,6 km/h (1 Bft)
16.10.2013 10:58 9,2 C 8,9 C 98 % 1014,3 hPa 0,0 l/m 0 min 0 min 0,0 UV-I 121 W/m 0,0 km/h (0 Bft)
16.10.2013 11:00 9,2 C 8,9 C 98 % 1014,4 hPa 0,0 l/m 0 min 0 min 0,0 UV-I 123 W/m 0,0 km/h (0 Bft)
16.10.2013 11:02 9,2 C 8,9 C 98 % 1014,3 hPa 0,0 l/m 0 min 0 min 0,0 UV-I 125 W/m 5,1 km/h (1 Bft)
16.10.2013 11:06 9,3 C 8,9 C 98 % 1014,2 hPa 0,0 l/m 0 min 0 min 0,0 UV-I 128 W/m 0,0 km/h (0 Bft)
16.10.2013 11:08 9,4 C 8,9 C 98 % 1014,2 hPa 0,0 l/m 0 min 0 min 0,0 UV-I 132 W/m 0,0 km/h (0 Bft)
16.10.2013 11:10 9,4 C 9,4 C 98 % 1014,2 hPa 0,0 l/m 0 min 0 min 0,0 UV-I 141 W/m 0,0 km/h (0 Bft)
16.10.2013 11:12 9,4 C 9,4 C 98 % 1014,2 hPa 0,0 l/m 0 min 0 min 0,0 UV-I 142 W/m 2,6 km/h (1 Bft)
16.10.2013 11:14 9,4 C 8,9 C 98 % 1014,3 hPa 0,0 l/m 0 min 0 min 0,0 UV-I 142 W/m 2,6 km/h (1 Bft)
16.10.2013 11:16 9,4 C 8,9 C 98 % 1014,3 hPa 0,0 l/m 0 min 0 min 0,0 UV-I 137 W/m 0,0 km/h (0 Bft)
16.10.2013 11:18 9,4 C 9,4 C 98 % 1014,2 hPa 0,0 l/m 0 min 0 min 0,0 UV-I 134 W/m 0,0 km/h (0 Bft)
16.10.2013 11:20 9,5 C 9,4 C 98 % 1014,3 hPa 0,0 l/m 0 min 0 min 0,0 UV-I 135 W/m 7,7 km/h (2 Bft)
16.10.2013 11:22 9,5 C 9,4 C 98 % 1014,2 hPa 0,0 l/m 0 min 0 min 0,0 UV-I 142 W/m 10,3 km/h (2 Bft)
16.10.2013 11:24 9,5 C 9,4 C 98 % 1014,3 hPa 0,0 l/m 0 min 0 min 0,0 UV-I 148 W/m 7,7 km/h (2 Bft)
16.10.2013 11:26 9,6 C 9,4 C 97 % 1014,2 hPa 0,0 l/m 0 min 0 min 0,0 UV-I 153 W/m 2,6 km/h (1 Bft)
16.10.2013 11:28 9,7 C 9,4 C 97 % 1014,2 hPa 0,0 l/m 0 min 0 min 0,0 UV-I 155 W/m 0,0 km/h (0 Bft)
16.10.2013 11:30 9,7 C 9,4 C 97 % 1014,3 hPa 0,0 l/m 0 min 0 min 0,0 UV-I 153 W/m 0,0 km/h (0 Bft)
16.10.2013 11:32 9,7 C 9,4 C 97 % 1014,3 hPa 0,0 l/m 0 min 0 min 0,0 UV-I 146 W/m 0,0 km/h (0 Bft)
16.10.2013 11:34 9,8 C 9,4 C 97 % 1014,4 hPa 0,0 l/m 0 min 0 min 0,0 UV-I 139 W/m 0,0 km/h (0 Bft)
16.10.2013 11:36 9,8 C 9,4 C 97 % 1014,3 hPa 0,0 l/m 0 min 0 min 0,0 UV-I 146 W/m 0,0 km/h (0 Bft)
16.10.2013 11:38 9,8 C 9,4 C 97 % 1014,3 hPa 0,0 l/m 0 min 0 min 0,0 UV-I 153 W/m 0,0 km/h (0 Bft)
16.10.2013 11:40 9,8 C 9,4 C 97 % 1014,3 hPa 0,0 l/m 0 min 0 min 0,0 UV-I 153 W/m 0,0 km/h (0 Bft)
16.10.2013 11:42 9,9 C 9,4 C 97 % 1014,3 hPa 0,0 l/m 0 min 0 min 0,0 UV-I 151 W/m 0,0 km/h (0 Bft)
16.10.2013 11:44 9,9 C 9,4 C 97 % 1014,4 hPa 0,0 l/m 0 min 0 min 0,0 UV-I 149 W/m 0,0 km/h (0 Bft)
16.10.2013 11:46 10,1 C 10,0 C 97 % 1014,3 hPa 0,0 l/m 0 min 0 min 0,0 UV-I 158 W/m 0,0 km/h (0 Bft)
16.10.2013 11:48 10,2 C 10,0 C 97 % 1014,4 hPa 0,0 l/m 0 min 0 min 0,5 UV-I 162 W/m 0,0 km/h (0 Bft)
16.10.2013 11:50 10,3 C 10,0 C 96 % 1014,4 hPa 0,0 l/m 0 min 0 min 0,5 UV-I 165 W/m 0,0 km/h (0 Bft)
16.10.2013 11:52 10,2 C 10,0 C 96 % 1014,4 hPa 0,0 l/m 0 min 0 min 0,5 UV-I 167 W/m 5,1 km/h (1 Bft)
16.10.2013 11:54 10,2 C 10,0 C 96 % 1014,4 hPa 0,0 l/m 0 min 0 min 0,0 UV-I 167 W/m 0,0 km/h (0 Bft)
16.10.2013 11:56 10,2 C 10,0 C 96 % 1014,4 hPa 0,0 l/m 0 min 0 min 0,0 UV-I 160 W/m 5,1 km/h (1 Bft)
16.10.2013 11:58 10,2 C 10,0 C 96 % 1014,4 hPa 0,0 l/m 0 min 0 min 0,0 UV-I 153 W/m 2,6 km/h (1 Bft)
16.10.2013 12:00 10,2 C 10,0 C 96 % 1014,4 hPa 0,0 l/m 0 min 0 min 0,0 UV-I 148 W/m 0,0 km/h (0 Bft)
16.10.2013 12:02 10,3 C 10,0 C 96 % 1014,4 hPa 0,0 l/m 0 min 0 min 0,0 UV-I 149 W/m 0,0 km/h (0 Bft)
16.10.2013 12:06 10,3 C 10,0 C 95 % 1014,3 hPa 0,0 l/m 0 min 0 min 0,0 UV-I 156 W/m 5,1 km/h (1 Bft)
16.10.2013 12:08 10,4 C 10,0 C 95 % 1014,4 hPa 0,0 l/m 0 min 0 min 0,0 UV-I 151 W/m 0,0 km/h (0 Bft)
16.10.2013 12:10 10,4 C 10,0 C 95 % 1014,4 hPa 0,0 l/m 0 min 0 min 0,0 UV-I 146 W/m 0,0 km/h (0 Bft)
16.10.2013 12:12 10,4 C 10,0 C 95 % 1014,4 hPa 0,0 l/m 0 min 0 min 0,0 UV-I 127 W/m 0,0 km/h (0 Bft)
16.10.2013 12:14 10,3 C 10,0 C 95 % 1014,4 hPa 0,0 l/m 0 min 0 min 0,0 UV-I 121 W/m 2,6 km/h (1 Bft)
16.10.2013 12:16 10,3 C 10,0 C 95 % 1014,4 hPa 0,0 l/m 0 min 0 min 0,0 UV-I 127 W/m 2,6 km/h (1 Bft)
16.10.2013 12:18 10,2 C 10,0 C 95 % 1014,4 hPa 0,0 l/m 0 min 0 min 0,0 UV-I 125 W/m 5,1 km/h (1 Bft)
16.10.2013 12:20 10,2 C 10,0 C 95 % 1014,4 hPa 0,0 l/m 0 min 0 min 0,0 UV-I 144 W/m 5,1 km/h (1 Bft)
16.10.2013 12:22 10,1 C 10,0 C 95 % 1014,4 hPa 0,0 l/m 0 min 0 min 0,0 UV-I 141 W/m 5,1 km/h (1 Bft)
16.10.2013 12:24 10,1 C 10,0 C 95 % 1014,6 hPa 0,0 l/m 0 min 0 min 0,0 UV-I 137 W/m 2,6 km/h (1 Bft)
16.10.2013 12:26 10,1 C 10,0 C 95 % 1014,5 hPa 0,0 l/m 0 min 0 min 0,0 UV-I 141 W/m 0,0 km/h (0 Bft)
16.10.2013 12:28 10,1 C 9,4 C 95 % 1014,5 hPa 0,0 l/m 0 min 0 min 0,0 UV-I 134 W/m 10,3 km/h (2 Bft)
16.10.2013 12:30 10,0 C 9,4 C 95 % 1014,5 hPa 0,0 l/m 0 min 0 min 0,0 UV-I 134 W/m 5,1 km/h (1 Bft)
16.10.2013 12:32 9,9 C 9,4 C 95 % 1014,4 hPa 0,0 l/m 0 min 0 min 0,0 UV-I 135 W/m 5,1 km/h (1 Bft)
16.10.2013 12:34 9,9 C 9,4 C 95 % 1014,5 hPa 0,0 l/m 0 min 0 min 0,0 UV-I 139 W/m 0,0 km/h (0 Bft)
16.10.2013 12:36 9,9 C 9,4 C 94 % 1014,5 hPa 0,0 l/m 0 min 0 min 0,0 UV-I 132 W/m 10,3 km/h (2 Bft)
16.10.2013 12:38 9,9 C 9,4 C 94 % 1014,4 hPa 0,0 l/m 0 min 0 min 0,0 UV-I 137 W/m 0,0 km/h (0 Bft)
16.10.2013 12:40 10,0 C 10,0 C 94 % 1014,5 hPa 0,0 l/m 0 min 0 min 0,0 UV-I 146 W/m 2,6 km/h (1 Bft)
16.10.2013 12:42 10,1 C 10,0 C 95 % 1014,5 hPa 0,0 l/m 0 min 0 min 0,0 UV-I 148 W/m 0,0 km/h (0 Bft)
16.10.2013 12:44 10,1 C 10,0 C 95 % 1014,5 hPa 0,0 l/m 0 min 0 min 0,0 UV-I 149 W/m 5,1 km/h (1 Bft)
16.10.2013 12:46 10,1 C 10,0 C 94 % 1014,5 hPa 0,0 l/m 0 min 0 min 0,0 UV-I 146 W/m 0,0 km/h (0 Bft)
16.10.2013 12:48 10,2 C 10,0 C 94 % 1014,5 hPa 0,0 l/m 0 min 0 min 0,0 UV-I 146 W/m 0,0 km/h (0 Bft)
16.10.2013 12:50 10,2 C 10,0 C 94 % 1014,4 hPa 0,0 l/m 0 min 0 min 0,5 UV-I 174 W/m 0,0 km/h (0 Bft)
16.10.2013 12:52 10,3 C 10,0 C 94 % 1014,4 hPa 0,0 l/m 0 min 0 min 0,6 UV-I 179 W/m 0,0 km/h (0 Bft)
16.10.2013 12:54 10,4 C 10,0 C 95 % 1014,4 hPa 0,0 l/m 0 min 0 min 0,6 UV-I 197 W/m 0,0 km/h (0 Bft)
16.10.2013 12:56 10,4 C 10,6 C 95 % 1014,4 hPa 0,0 l/m 0 min 0 min 0,8 UV-I 267 W/m 5,1 km/h (1 Bft)
16.10.2013 12:58 10,5 C 10,6 C 94 % 1014,4 hPa 0,0 l/m 2 min 0 min 0,9 UV-I 330 W/m 0,0 km/h (0 Bft)
16.10.2013 13:00 10,7 C 10,6 C 94 % 1014,3 hPa 0,0 l/m 2 min 0 min 1,0 UV-I 424 W/m 0,0 km/h (0 Bft)
16.10.2013 13:02 11,1 C 11,1 C 94 % 1014,2 hPa 0,0 l/m 2 min 0 min 0,9 UV-I 362 W/m 0,0 km/h (0 Bft)
16.10.2013 13:06 11,2 C 11,1 C 94 % 1014,3 hPa 0,0 l/m 2 min 0 min 0,9 UV-I 343 W/m 0,0 km/h (0 Bft)
16.10.2013 13:08 11,3 C 11,1 C 94 % 1014,3 hPa 0,0 l/m 2 min 0 min 0,9 UV-I 436 W/m 2,6 km/h (1 Bft)
16.10.2013 13:10 11,4 C 11,1 C 93 % 1014,3 hPa 0,0 l/m 2 min 0 min 1,0 UV-I 325 W/m 0,0 km/h (0 Bft)
16.10.2013 13:12 11,4 C 11,1 C 93 % 1014,3 hPa 0,0 l/m 2 min 0 min 1,0 UV-I 315 W/m 0,0 km/h (0 Bft)
16.10.2013 13:14 11,6 C 11,1 C 93 % 1014,3 hPa 0,0 l/m 2 min 0 min 1,0 UV-I 376 W/m 5,1 km/h (1 Bft)
16.10.2013 13:16 11,6 C 11,1 C 92 % 1014,3 hPa 0,0 l/m 2 min 0 min 1,0 UV-I 346 W/m 7,7 km/h (2 Bft)
16.10.2013 13:18 11,6 C 11,1 C 91 % 1014,2 hPa 0,0 l/m 2 min 0 min 1,0 UV-I 302 W/m 5,1 km/h (1 Bft)
16.10.2013 13:20 11,5 C 11,1 C 91 % 1014,2 hPa 0,0 l/m 2 min 0 min 1,0 UV-I 315 W/m 5,1 km/h (1 Bft)
16.10.2013 13:22 11,4 C 11,1 C 91 % 1014,2 hPa 0,0 l/m 0 min 0 min 0,9 UV-I 267 W/m 7,7 km/h (2 Bft)
16.10.2013 13:24 11,5 C 11,1 C 90 % 1014,2 hPa 0,0 l/m 2 min 0 min 0,9 UV-I 302 W/m 0,0 km/h (0 Bft)
16.10.2013 13:26 11,7 C 11,1 C 91 % 1014,2 hPa 0,0 l/m 2 min 0 min 1,1 UV-I 373 W/m 0,0 km/h (0 Bft)
16.10.2013 13:28 11,8 C 11,7 C 91 % 1014,1 hPa 0,0 l/m 2 min 0 min 1,1 UV-I 371 W/m 0,0 km/h (0 Bft)
16.10.2013 13:30 11,9 C 11,7 C 91 % 1014,2 hPa 0,0 l/m 2 min 0 min 1,0 UV-I 301 W/m 2,6 km/h (1 Bft)
16.10.2013 13:32 11,9 C 11,7 C 91 % 1014,1 hPa 0,0 l/m 0 min 0 min 0,9 UV-I 229 W/m 2,6 km/h (1 Bft)
16.10.2013 13:34 11,9 C 11,1 C 90 % 1014,1 hPa 0,0 l/m 2 min 0 min 0,9 UV-I 308 W/m 0,0 km/h (0 Bft)
16.10.2013 13:36 11,8 C 11,1 C 90 % 1014,0 hPa 0,0 l/m 0 min 0 min 0,9 UV-I 176 W/m 0,0 km/h (0 Bft)
16.10.2013 13:38 11,6 C 11,1 C 90 % 1014,0 hPa 0,0 l/m 0 min 0 min 0,8 UV-I 172 W/m 0,0 km/h (0 Bft)
16.10.2013 13:40 11,5 C 11,1 C 90 % 1013,9 hPa 0,0 l/m 0 min 0 min 0,8 UV-I 165 W/m 0,0 km/h (0 Bft)
16.10.2013 13:42 11,4 C 10,6 C 90 % 1013,8 hPa 0,0 l/m 0 min 0 min 0,8 UV-I 162 W/m 0,0 km/h (0 Bft)
16.10.2013 13:44 11,3 C 10,6 C 91 % 1013,8 hPa 0,0 l/m 0 min 0 min 0,8 UV-I 158 W/m 0,0 km/h (0 Bft)
16.10.2013 13:46 11,3 C 10,6 C 91 % 1013,7 hPa 0,0 l/m 0 min 0 min 0,8 UV-I 162 W/m 0,0 km/h (0 Bft)
16.10.2013 13:48 11,3 C 10,6 C 91 % 1013,7 hPa 0,0 l/m 0 min 0 min 0,8 UV-I 171 W/m 0,0 km/h (0 Bft)
16.10.2013 13:50 11,3 C 10,6 C 91 % 1013,8 hPa 0,0 l/m 0 min 0 min 0,7 UV-I 174 W/m 0,0 km/h (0 Bft)
16.10.2013 13:52 11,4 C 11,1 C 91 % 1013,7 hPa 0,0 l/m 0 min 0 min 0,7 UV-I 169 W/m 0,0 km/h (0 Bft)
16.10.2013 13:54 11,3 C 11,1 C 91 % 1013,7 hPa 0,0 l/m 0 min 0 min 0,6 UV-I 165 W/m 0,0 km/h (0 Bft)
16.10.2013 13:56 11,3 C 11,1 C 91 % 1013,7 hPa 0,0 l/m 0 min 0 min 0,5 UV-I 163 W/m 0,0 km/h (0 Bft)
16.10.2013 13:58 11,4 C 11,1 C 91 % 1013,7 hPa 0,0 l/m 0 min 0 min 0,5 UV-I 163 W/m 0,0 km/h (0 Bft)
16.10.2013 14:00 11,3 C 11,1 C 91 % 1013,7 hPa 0,0 l/m 0 min 0 min 0,5 UV-I 169 W/m 0,0 km/h (0 Bft)
16.10.2013 14:02 11,4 C 11,1 C 91 % 1013,7 hPa 0,0 l/m 0 min 0 min 0,0 UV-I 162 W/m 0,0 km/h (0 Bft)
16.10.2013 14:06 11,5 C 11,1 C 91 % 1013,7 hPa 0,0 l/m 0 min 0 min 0,0 UV-I 153 W/m 0,0 km/h (0 Bft)
16.10.2013 14:08 11,4 C 11,1 C 91 % 1013,8 hPa 0,0 l/m 0 min 0 min 0,0 UV-I 148 W/m 0,0 km/h (0 Bft)
16.10.2013 14:10 11,4 C 11,1 C 91 % 1013,7 hPa 0,0 l/m 0 min 0 min 0,0 UV-I 144 W/m 0,0 km/h (0 Bft)
16.10.2013 14:12 11,4 C 11,1 C 91 % 1013,7 hPa 0,0 l/m 0 min 0 min 0,0 UV-I 141 W/m 0,0 km/h (0 Bft)
16.10.2013 14:14 11,6 C 11,1 C 91 % 1013,7 hPa 0,0 l/m 0 min 0 min 0,0 UV-I 135 W/m 0,0 km/h (0 Bft)
16.10.2013 14:16 11,6 C 11,1 C 91 % 1013,7 hPa 0,0 l/m 0 min 0 min 0,0 UV-I 134 W/m 0,0 km/h (0 Bft)
16.10.2013 14:18 11,7 C 11,1 C 91 % 1013,7 hPa 0,0 l/m 0 min 0 min 0,0 UV-I 146 W/m 0,0 km/h (0 Bft)
16.10.2013 14:20 11,7 C 11,7 C 91 % 1013,7 hPa 0,0 l/m 0 min 0 min 0,0 UV-I 162 W/m 0,0 km/h (0 Bft)
16.10.2013 14:22 11,8 C 11,7 C 91 % 1013,7 hPa 0,0 l/m 0 min 0 min 0,0 UV-I 162 W/m 0,0 km/h (0 Bft)
16.10.2013 14:24 11,8 C 11,7 C 91 % 1013,9 hPa 0,0 l/m 0 min 0 min 0,0 UV-I 148 W/m 0,0 km/h (0 Bft)
16.10.2013 14:26 11,8 C 11,7 C 91 % 1013,9 hPa 0,0 l/m 0 min 0 min 0,0 UV-I 141 W/m 0,0 km/h (0 Bft)
16.10.2013 14:28 11,8 C 11,7 C 91 % 1013,7 hPa 0,0 l/m 0 min 0 min 0,0 UV-I 139 W/m 0,0 km/h (0 Bft)
16.10.2013 14:30 11,8 C 11,7 C 91 % 1013,7 hPa 0,0 l/m 0 min 0 min 0,0 UV-I 162 W/m 0,0 km/h (0 Bft)
16.10.2013 14:32 11,8 C 11,7 C 91 % 1013,7 hPa 0,0 l/m 0 min 0 min 0,5 UV-I 179 W/m 0,0 km/h (0 Bft)
16.10.2013 14:34 11,9 C 11,7 C 91 % 1013,7 hPa 0,0 l/m 0 min 0 min 0,5 UV-I 186 W/m 0,0 km/h (0 Bft)
16.10.2013 14:36 11,9 C 11,7 C 91 % 1013,7 hPa 0,0 l/m 0 min 0 min 0,5 UV-I 181 W/m 0,0 km/h (0 Bft)
16.10.2013 14:38 11,9 C 11,7 C 90 % 1013,7 hPa 0,0 l/m 0 min 0 min 0,5 UV-I 181 W/m 0,0 km/h (0 Bft)
16.10.2013 14:40 12,0 C 11,7 C 90 % 1013,7 hPa 0,0 l/m 0 min 0 min 0,5 UV-I 178 W/m 2,6 km/h (1 Bft)
16.10.2013 14:42 12,1 C 11,7 C 90 % 1013,7 hPa 0,0 l/m 0 min 0 min 0,5 UV-I 185 W/m 0,0 km/h (0 Bft)
16.10.2013 14:44 12,1 C 11,7 C 90 % 1013,7 hPa 0,0 l/m 0 min 0 min 0,5 UV-I 183 W/m 5,1 km/h (1 Bft)
16.10.2013 14:46 12,2 C 11,7 C 90 % 1013,7 hPa 0,0 l/m 0 min 0 min 0,0 UV-I 171 W/m 5,1 km/h (1 Bft)
16.10.2013 14:48 12,2 C 11,7 C 90 % 1013,7 hPa 0,0 l/m 0 min 0 min 0,0 UV-I 169 W/m 10,3 km/h (2 Bft)
16.10.2013 14:50 12,3 C 11,7 C 90 % 1013,7 hPa 0,0 l/m 0 min 0 min 0,0 UV-I 169 W/m 5,1 km/h (1 Bft)
16.10.2013 14:52 12,3 C 11,7 C 90 % 1013,7 hPa 0,0 l/m 0 min 0 min 0,0 UV-I 171 W/m 0,0 km/h (0 Bft)
16.10.2013 14:54 12,3 C 11,7 C 90 % 1013,6 hPa 0,0 l/m 0 min 0 min 0,0 UV-I 169 W/m 0,0 km/h (0 Bft)
16.10.2013 14:56 12,3 C 11,7 C 90 % 1013,7 hPa 0,0 l/m 0 min 0 min 0,0 UV-I 169 W/m 0,0 km/h (0 Bft)
16.10.2013 14:58 12,3 C 11,7 C 89 % 1013,6 hPa 0,0 l/m 0 min 0 min 0,0 UV-I 172 W/m 0,0 km/h (0 Bft)
16.10.2013 15:00 12,3 C 11,7 C 90 % 1013,6 hPa 0,0 l/m 0 min 0 min 0,0 UV-I 172 W/m 0,0 km/h (0 Bft)
16.10.2013 15:02 12,3 C 11,7 C 89 % 1013,6 hPa 0,0 l/m 0 min 0 min 0,0 UV-I 169 W/m 0,0 km/h (0 Bft)
16.10.2013 15:06 12,3 C 11,7 C 90 % 1013,6 hPa 0,0 l/m 0 min 0 min 0,0 UV-I 169 W/m 2,6 km/h (1 Bft)
16.10.2013 15:08 12,3 C 11,7 C 89 % 1013,6 hPa 0,0 l/m 0 min 0 min 0,0 UV-I 169 W/m 0,0 km/h (0 Bft)
16.10.2013 15:10 12,3 C 11,7 C 90 % 1013,6 hPa 0,0 l/m 0 min 0 min 0,0 UV-I 153 W/m 0,0 km/h (0 Bft)
16.10.2013 15:12 12,3 C 11,7 C 90 % 1013,6 hPa 0,0 l/m 0 min 0 min 0,0 UV-I 151 W/m 0,0 km/h (0 Bft)
16.10.2013 15:14 12,4 C 11,7 C 90 % 1013,6 hPa 0,0 l/m 0 min 0 min 0,0 UV-I 153 W/m 0,0 km/h (0 Bft)
16.10.2013 15:16 12,4 C 12,2 C 90 % 1013,6 hPa 0,0 l/m 0 min 0 min 0,0 UV-I 148 W/m 0,0 km/h (0 Bft)
16.10.2013 15:18 12,4 C 12,2 C 89 % 1013,6 hPa 0,0 l/m 0 min 0 min 0,0 UV-I 148 W/m 0,0 km/h (0 Bft)
16.10.2013 15:20 12,5 C 12,2 C 89 % 1013,6 hPa 0,0 l/m 0 min 0 min 0,0 UV-I 148 W/m 0,0 km/h (0 Bft)
16.10.2013 15:22 12,4 C 11,7 C 89 % 1013,6 hPa 0,0 l/m 0 min 0 min 0,0 UV-I 151 W/m 0,0 km/h (0 Bft)
16.10.2013 15:24 12,4 C 11,7 C 89 % 1013,5 hPa 0,0 l/m 0 min 0 min 0,0 UV-I 155 W/m 0,0 km/h (0 Bft)
16.10.2013 15:26 12,4 C 11,7 C 89 % 1013,5 hPa 0,0 l/m 0 min 0 min 0,0 UV-I 158 W/m 7,7 km/h (2 Bft)
16.10.2013 15:28 12,4 C 11,7 C 89 % 1013,5 hPa 0,0 l/m 0 min 0 min 0,0 UV-I 163 W/m 0,0 km/h (0 Bft)
16.10.2013 15:30 12,4 C 12,2 C 89 % 1013,5 hPa 0,0 l/m 0 min 0 min 0,0 UV-I 167 W/m 0,0 km/h (0 Bft)
16.10.2013 15:32 12,4 C 12,2 C 89 % 1013,6 hPa 0,0 l/m 0 min 0 min 0,0 UV-I 171 W/m 2,6 km/h (1 Bft)
16.10.2013 15:34 12,5 C 12,2 C 88 % 1013,5 hPa 0,0 l/m 0 min 0 min 0,0 UV-I 172 W/m 0,0 km/h (0 Bft)
16.10.2013 15:36 12,5 C 12,2 C 88 % 1013,5 hPa 0,0 l/m 0 min 0 min 0,0 UV-I 174 W/m 0,0 km/h (0 Bft)
16.10.2013 15:38 12,6 C 12,2 C 88 % 1013,5 hPa 0,0 l/m 0 min 0 min 0,0 UV-I 172 W/m 0,0 km/h (0 Bft)
16.10.2013 15:40 12,6 C 12,2 C 88 % 1013,5 hPa 0,0 l/m 0 min 0 min 0,0 UV-I 169 W/m 0,0 km/h (0 Bft)
16.10.2013 15:42 12,6 C 12,2 C 88 % 1013,4 hPa 0,0 l/m 0 min 0 min 0,0 UV-I 165 W/m 0,0 km/h (0 Bft)
16.10.2013 15:44 12,7 C 12,2 C 89 % 1013,4 hPa 0,0 l/m 0 min 0 min 0,0 UV-I 162 W/m 0,0 km/h (0 Bft)
16.10.2013 15:46 12,7 C 12,2 C 89 % 1013,4 hPa 0,0 l/m 0 min 0 min 0,0 UV-I 156 W/m 0,0 km/h (0 Bft)
16.10.2013 15:48 12,7 C 12,2 C 89 % 1013,3 hPa 0,0 l/m 0 min 0 min 0,0 UV-I 153 W/m 0,0 km/h (0 Bft)
16.10.2013 15:50 12,7 C 12,2 C 88 % 1013,3 hPa 0,0 l/m 0 min 0 min 0,0 UV-I 151 W/m 0,0 km/h (0 Bft)
16.10.2013 15:52 12,7 C 12,2 C 88 % 1013,3 hPa 0,0 l/m 0 min 0 min 0,0 UV-I 148 W/m 0,0 km/h (0 Bft)
16.10.2013 15:54 12,7 C 12,2 C 88 % 1013,3 hPa 0,0 l/m 0 min 0 min 0,0 UV-I 144 W/m 0,0 km/h (0 Bft)
16.10.2013 15:56 12,7 C 12,2 C 88 % 1013,2 hPa 0,0 l/m 0 min 0 min 0,0 UV-I 139 W/m 0,0 km/h (0 Bft)
16.10.2013 15:58 12,8 C 12,2 C 89 % 1013,2 hPa 0,0 l/m 0 min 0 min 0,0 UV-I 132 W/m 0,0 km/h (0 Bft)
16.10.2013 16:00 12,8 C 12,2 C 89 % 1013,2 hPa 0,0 l/m 0 min 0 min 0,0 UV-I 127 W/m 0,0 km/h (0 Bft)
16.10.2013 16:02 12,8 C 12,2 C 89 % 1013,3 hPa 0,0 l/m 0 min 0 min 0,0 UV-I 123 W/m 0,0 km/h (0 Bft)
16.10.2013 16:06 12,8 C 12,2 C 88 % 1013,1 hPa 0,0 l/m 0 min 0 min 0,0 UV-I 116 W/m 0,0 km/h (0 Bft)
16.10.2013 16:08 12,8 C 12,2 C 88 % 1013,2 hPa 0,0 l/m 0 min 0 min 0,0 UV-I 111 W/m 0,0 km/h (0 Bft)
16.10.2013 16:10 12,7 C 12,2 C 88 % 1013,2 hPa 0,0 l/m 0 min 0 min 0,0 UV-I 105 W/m 0,0 km/h (0 Bft)
16.10.2013 16:12 12,7 C 12,2 C 88 % 1013,2 hPa 0,0 l/m 0 min 0 min 0,0 UV-I 102 W/m 0,0 km/h (0 Bft)
16.10.2013 16:14 12,7 C 12,2 C 88 % 1013,1 hPa 0,0 l/m 0 min 0 min 0,0 UV-I 102 W/m 0,0 km/h (0 Bft)
16.10.2013 16:16 12,7 C 11,7 C 88 % 1013,1 hPa 0,0 l/m 0 min 0 min 0,0 UV-I 104 W/m 0,0 km/h (0 Bft)
16.10.2013 16:18 12,8 C 12,2 C 89 % 1013,1 hPa 0,0 l/m 0 min 0 min 0,0 UV-I 104 W/m 0,0 km/h (0 Bft)
16.10.2013 16:20 12,8 C 12,2 C 89 % 1013,0 hPa 0,0 l/m 0 min 0 min 0,0 UV-I 105 W/m 0,0 km/h (0 Bft)
16.10.2013 16:22 12,8 C 12,2 C 89 % 1012,9 hPa 0,0 l/m 0 min 0 min 0,0 UV-I 104 W/m 0,0 km/h (0 Bft)
16.10.2013 16:24 12,7 C 11,7 C 89 % 1012,9 hPa 0,0 l/m 0 min 0 min 0,0 UV-I 102 W/m 2,6 km/h (1 Bft)
16.10.2013 16:26 12,7 C 11,7 C 89 % 1012,8 hPa 0,0 l/m 0 min 0 min 0,0 UV-I 100 W/m 0,0 km/h (0 Bft)
16.10.2013 16:28 12,7 C 12,2 C 89 % 1012,8 hPa 0,0 l/m 0 min 0 min 0,0 UV-I 97 W/m 0,0 km/h (0 Bft)
16.10.2013 16:30 12,7 C 11,7 C 89 % 1012,7 hPa 0,0 l/m 0 min 0 min 0,0 UV-I 95 W/m 2,6 km/h (1 Bft)
16.10.2013 16:32 12,7 C 11,7 C 89 % 1012,6 hPa 0,0 l/m 0 min 0 min 0,0 UV-I 91 W/m 0,0 km/h (0 Bft)
16.10.2013 16:34 12,7 C 11,7 C 89 % 1012,5 hPa 0,0 l/m 0 min 0 min 0,0 UV-I 88 W/m 2,6 km/h (1 Bft)
16.10.2013 16:36 12,7 C 11,7 C 89 % 1012,5 hPa 0,0 l/m 0 min 0 min 0,0 UV-I 84 W/m 0,0 km/h (0 Bft)
16.10.2013 16:38 12,6 C 11,7 C 89 % 1012,4 hPa 0,0 l/m 0 min 0 min 0,0 UV-I 81 W/m 10,3 km/h (2 Bft)
16.10.2013 16:40 12,6 C 11,7 C 89 % 1012,4 hPa 0,0 l/m 0 min 0 min 0,0 UV-I 76 W/m 2,6 km/h (1 Bft)
16.10.2013 16:42 12,5 C 11,7 C 89 % 1012,3 hPa 0,0 l/m 0 min 0 min 0,0 UV-I 74 W/m 7,7 km/h (2 Bft)
16.10.2013 16:44 12,5 C 11,7 C 89 % 1012,2 hPa 0,0 l/m 0 min 0 min 0,0 UV-I 70 W/m 7,7 km/h (2 Bft)
16.10.2013 16:46 12,4 C 11,7 C 89 % 1012,3 hPa 0,0 l/m 0 min 0 min 0,0 UV-I 69 W/m 7,7 km/h (2 Bft)
16.10.2013 16:48 12,4 C 11,7 C 89 % 1012,1 hPa 0,0 l/m 0 min 0 min 0,0 UV-I 65 W/m 0,0 km/h (0 Bft)
16.10.2013 16:50 12,4 C 11,1 C 90 % 1012,1 hPa 0,0 l/m 0 min 0 min 0,0 UV-I 58 W/m 2,6 km/h (1 Bft)
16.10.2013 16:52 12,3 C 11,1 C 90 % 1012,0 hPa 0,0 l/m 0 min 0 min 0,0 UV-I 54 W/m 7,7 km/h (2 Bft)
16.10.2013 16:54 12,3 C 11,1 C 90 % 1012,0 hPa 0,0 l/m 0 min 0 min 0,0 UV-I 49 W/m 5,1 km/h (1 Bft)
16.10.2013 16:56 12,3 C 11,1 C 90 % 1012,0 hPa 0,0 l/m 0 min 0 min 0,0 UV-I 46 W/m 0,0 km/h (0 Bft)
16.10.2013 16:58 12,2 C 11,1 C 90 % 1011,9 hPa 0,0 l/m 0 min 0 min 0,0 UV-I 42 W/m 7,7 km/h (2 Bft)
16.10.2013 17:00 12,2 C 11,1 C 90 % 1011,9 hPa 0,0 l/m 0 min 0 min 0,0 UV-I 40 W/m 2,6 km/h (1 Bft)
16.10.2013 17:02 12,2 C 11,1 C 90 % 1011,8 hPa 0,0 l/m 0 min 0 min 0,0 UV-I 39 W/m 2,6 km/h (1 Bft)
16.10.2013 17:06 12,1 C 11,1 C 90 % 1011,8 hPa 0,0 l/m 0 min 0 min 0,0 UV-I 39 W/m 12,9 km/h (3 Bft)
16.10.2013 17:08 12,1 C 11,1 C 90 % 1011,7 hPa 0,0 l/m 0 min 0 min 0,0 UV-I 39 W/m 7,7 km/h (2 Bft)
16.10.2013 17:10 12,0 C 10,6 C 91 % 1011,7 hPa 0,0 l/m 0 min 0 min 0,0 UV-I 40 W/m 0,0 km/h (0 Bft)
16.10.2013 17:12 12,0 C 10,6 C 91 % 1011,6 hPa 0,0 l/m 0 min 0 min 0,0 UV-I 40 W/m 2,6 km/h (1 Bft)
16.10.2013 17:14 11,9 C 10,6 C 91 % 1011,7 hPa 0,0 l/m 0 min 0 min 0,0 UV-I 44 W/m 0,0 km/h (0 Bft)
16.10.2013 17:16 11,9 C 10,6 C 91 % 1011,7 hPa 0,0 l/m 0 min 0 min 0,0 UV-I 44 W/m 7,7 km/h (2 Bft)
16.10.2013 17:18 11,9 C 10,6 C 91 % 1011,7 hPa 0,0 l/m 0 min 0 min 0,0 UV-I 44 W/m 5,1 km/h (1 Bft)
16.10.2013 17:20 11,9 C 10,6 C 91 % 1011,8 hPa 0,0 l/m 0 min 0 min 0,0 UV-I 44 W/m 5,1 km/h (1 Bft)
16.10.2013 17:22 11,9 C 10,6 C 91 % 1011,9 hPa 0,0 l/m 0 min 0 min 0,0 UV-I 44 W/m 0,0 km/h (0 Bft)
16.10.2013 17:24 11,8 C 10,6 C 91 % 1011,9 hPa 0,0 l/m 0 min 0 min 0,0 UV-I 46 W/m 0,0 km/h (0 Bft)
16.10.2013 17:26 11,8 C 10,6 C 91 % 1011,9 hPa 0,0 l/m 0 min 0 min 0,0 UV-I 46 W/m 5,1 km/h (1 Bft)
16.10.2013 17:28 11,8 C 10,6 C 91 % 1011,9 hPa 0,0 l/m 0 min 0 min 0,0 UV-I 47 W/m 5,1 km/h (1 Bft)
16.10.2013 17:30 11,8 C 10,6 C 91 % 1011,9 hPa 0,0 l/m 0 min 0 min 0,0 UV-I 51 W/m 7,7 km/h (2 Bft)
16.10.2013 17:32 11,8 C 10,6 C 91 % 1011,9 hPa 0,0 l/m 0 min 0 min 0,0 UV-I 53 W/m 0,0 km/h (0 Bft)
16.10.2013 17:34 11,8 C 10,6 C 92 % 1011,9 hPa 0,0 l/m 0 min 0 min 0,0 UV-I 53 W/m 5,1 km/h (1 Bft)
16.10.2013 17:36 11,8 C 10,6 C 92 % 1011,9 hPa 0,0 l/m 0 min 0 min 0,0 UV-I 49 W/m 0,0 km/h (0 Bft)
16.10.2013 17:38 11,8 C 10,6 C 92 % 1011,9 hPa 0,0 l/m 0 min 0 min 0,0 UV-I 47 W/m 0,0 km/h (0 Bft)
16.10.2013 17:40 11,7 C 10,6 C 92 % 1011,9 hPa 0,0 l/m 0 min 0 min 0,0 UV-I 46 W/m 7,7 km/h (2 Bft)
16.10.2013 17:42 11,7 C 10,6 C 91 % 1011,9 hPa 0,0 l/m 0 min 0 min 0,0 UV-I 47 W/m 5,1 km/h (1 Bft)
16.10.2013 17:44 11,8 C 10,6 C 91 % 1012,0 hPa 0,0 l/m 0 min 0 min 0,0 UV-I 49 W/m 0,0 km/h (0 Bft)
16.10.2013 17:46 11,8 C 10,6 C 91 % 1012,0 hPa 0,0 l/m 0 min 0 min 0,0 UV-I 49 W/m 0,0 km/h (0 Bft)
16.10.2013 17:48 11,8 C 10,6 C 91 % 1012,1 hPa 0,0 l/m 0 min 0 min 0,0 UV-I 49 W/m 0,0 km/h (0 Bft)
16.10.2013 17:50 11,7 C 10,6 C 91 % 1012,1 hPa 0,0 l/m 0 min 0 min 0,0 UV-I 49 W/m 0,0 km/h (0 Bft)
16.10.2013 17:52 11,7 C 10,6 C 91 % 1012,0 hPa 0,0 l/m 0 min 0 min 0,0 UV-I 47 W/m 2,6 km/h (1 Bft)
16.10.2013 17:54 11,7 C 10,6 C 92 % 1012,1 hPa 0,0 l/m 0 min 0 min 0,0 UV-I 40 W/m 0,0 km/h (0 Bft)
16.10.2013 17:56 11,7 C 10,6 C 91 % 1012,1 hPa 0,0 l/m 0 min 0 min 0,0 UV-I 35 W/m 0,0 km/h (0 Bft)
16.10.2013 17:58 11,7 C 10,6 C 91 % 1012,1 hPa 0,0 l/m 0 min 0 min 0,0 UV-I 30 W/m 0,0 km/h (0 Bft)
16.10.2013 18:00 11,8 C 10,6 C 91 % 1012,2 hPa 0,0 l/m 0 min 0 min 0,0 UV-I 23 W/m 0,0 km/h (0 Bft)
16.10.2013 18:02 11,7 C 10,6 C 91 % 1012,1 hPa 0,0 l/m 0 min 0 min 0,0 UV-I 19 W/m 0,0 km/h (0 Bft)
16.10.2013 18:06 11,7 C 10,6 C 91 % 1012,1 hPa 0,0 l/m 0 min 0 min 0,0 UV-I 11 W/m 0,0 km/h (0 Bft)
16.10.2013 18:08 11,7 C 10,6 C 91 % 1012,0 hPa 0,0 l/m 0 min 0 min 0,0 UV-I 9 W/m 0,0 km/h (0 Bft)
16.10.2013 18:10 11,6 C 10,0 C 92 % 1012,0 hPa 0,0 l/m 0 min 0 min 0,0 UV-I 7 W/m 0,0 km/h (0 Bft)
16.10.2013 18:12 11,6 C 10,0 C 91 % 1012,0 hPa 0,0 l/m 0 min 0 min 0,0 UV-I 5 W/m 0,0 km/h (0 Bft)
16.10.2013 18:14 11,6 C 10,0 C 92 % 1011,9 hPa 0,0 l/m 0 min 0 min 0,0 UV-I 5 W/m 0,0 km/h (0 Bft)
16.10.2013 18:16 11,6 C 10,0 C 92 % 1011,9 hPa 0,0 l/m 0 min 0 min 0,0 UV-I 0 W/m 2,6 km/h (1 Bft)
16.10.2013 18:18 11,5 C 10,0 C 92 % 1011,9 hPa 0,0 l/m 0 min 0 min 0,0 UV-I 0 W/m 0,0 km/h (0 Bft)
16.10.2013 18:20 11,4 C 10,0 C 92 % 1012,0 hPa 0,0 l/m 0 min 0 min 0,0 UV-I 0 W/m 0,0 km/h (0 Bft)
16.10.2013 18:22 11,4 C 10,0 C 92 % 1011,9 hPa 0,0 l/m 0 min 0 min 0,0 UV-I 0 W/m 0,0 km/h (0 Bft)
16.10.2013 18:24 11,4 C 10,0 C 92 % 1011,9 hPa 0,0 l/m 0 min 0 min 0,0 UV-I 0 W/m 7,7 km/h (2 Bft)
16.10.2013 18:26 11,4 C 10,0 C 92 % 1011,9 hPa 0,0 l/m 0 min 0 min 0,0 UV-I 0 W/m 0,0 km/h (0 Bft)
16.10.2013 18:28 11,4 C 10,0 C 92 % 1011,9 hPa 0,0 l/m 0 min 0 min 0,0 UV-I 0 W/m 0,0 km/h (0 Bft)
16.10.2013 18:30 11,3 C 10,0 C 92 % 1011,8 hPa 0,0 l/m 0 min 0 min 0,0 UV-I 0 W/m 2,6 km/h (1 Bft)
16.10.2013 18:32 11,3 C 10,0 C 92 % 1011,8 hPa 0,0 l/m 0 min 0 min 0,0 UV-I 0 W/m 0,0 km/h (0 Bft)
16.10.2013 18:34 11,3 C 10,0 C 92 % 1011,6 hPa 0,0 l/m 0 min 0 min 0,0 UV-I 0 W/m 0,0 km/h (0 Bft)
16.10.2013 18:36 11,3 C 10,0 C 92 % 1011,6 hPa 0,0 l/m 0 min 0 min 0,0 UV-I 0 W/m 0,0 km/h (0 Bft)
16.10.2013 18:38 11,3 C 10,0 C 92 % 1011,5 hPa 0,0 l/m 0 min 0 min 0,0 UV-I 0 W/m 0,0 km/h (0 Bft)
16.10.2013 18:40 11,3 C 10,0 C 92 % 1011,3 hPa 0,0 l/m 0 min 0 min 0,0 UV-I 0 W/m 0,0 km/h (0 Bft)
16.10.2013 18:42 11,3 C 10,0 C 93 % 1011,3 hPa 0,0 l/m 0 min 0 min 0,0 UV-I 0 W/m 2,6 km/h (1 Bft)
16.10.2013 18:44 11,2 C 10,0 C 93 % 1011,5 hPa 0,0 l/m 0 min 0 min 0,0 UV-I 0 W/m 0,0 km/h (0 Bft)
16.10.2013 18:46 11,2 C 10,0 C 93 % 1011,6 hPa 0,0 l/m 0 min 0 min 0,0 UV-I 0 W/m 0,0 km/h (0 Bft)
16.10.2013 18:48 11,2 C 10,0 C 93 % 1011,5 hPa 0,0 l/m 0 min 0 min 0,0 UV-I 0 W/m 0,0 km/h (0 Bft)
16.10.2013 18:50 11,2 C 10,0 C 93 % 1011,5 hPa 0,0 l/m 0 min 0 min 0,0 UV-I 0 W/m 2,6 km/h (1 Bft)
16.10.2013 18:52 11,1 C 10,0 C 93 % 1011,4 hPa 0,0 l/m 0 min 0 min 0,0 UV-I 0 W/m 0,0 km/h (0 Bft)
16.10.2013 18:54 11,1 C 10,0 C 93 % 1011,6 hPa 0,0 l/m 0 min 0 min 0,0 UV-I 0 W/m 0,0 km/h (0 Bft)
16.10.2013 18:56 11,1 C 10,0 C 93 % 1011,6 hPa 0,0 l/m 0 min 0 min 0,0 UV-I 0 W/m 0,0 km/h (0 Bft)
16.10.2013 18:58 11,1 C 10,0 C 93 % 1011,5 hPa 0,0 l/m 0 min 0 min 0,0 UV-I 0 W/m 0,0 km/h (0 Bft)
16.10.2013 19:00 11,1 C 10,0 C 93 % 1011,5 hPa 0,0 l/m 0 min 0 min 0,0 UV-I 0 W/m 0,0 km/h (0 Bft)
16.10.2013 19:02 11,0 C 9,4 C 93 % 1011,5 hPa 0,0 l/m 0 min 0 min 0,0 UV-I 0 W/m 2,6 km/h (1 Bft)
16.10.2013 19:06 11,0 C 9,4 C 93 % 1011,5 hPa 0,0 l/m 0 min 0 min 0,0 UV-I 0 W/m 0,0 km/h (0 Bft)
16.10.2013 19:08 11,0 C 9,4 C 93 % 1011,5 hPa 0,0 l/m 0 min 0 min 0,0 UV-I 0 W/m 0,0 km/h (0 Bft)
16.10.2013 19:10 11,0 C 9,4 C 93 % 1011,5 hPa 0,0 l/m 0 min 0 min 0,0 UV-I 0 W/m 0,0 km/h (0 Bft)
16.10.2013 19:12 11,0 C 9,4 C 93 % 1011,6 hPa 0,0 l/m 0 min 0 min 0,0 UV-I 0 W/m 0,0 km/h (0 Bft)
16.10.2013 19:14 11,0 C 9,4 C 93 % 1011,6 hPa 0,0 l/m 0 min 0 min 0,0 UV-I 0 W/m 0,0 km/h (0 Bft)
16.10.2013 19:16 10,9 C 9,4 C 93 % 1011,6 hPa 0,0 l/m 0 min 0 min 0,0 UV-I 0 W/m 0,0 km/h (0 Bft)
16.10.2013 19:18 10,9 C 9,4 C 93 % 1011,6 hPa 0,0 l/m 0 min 0 min 0,0 UV-I 0 W/m 0,0 km/h (0 Bft)
16.10.2013 19:20 10,9 C 9,4 C 93 % 1011,5 hPa 0,0 l/m 0 min 0 min 0,0 UV-I 0 W/m 0,0 km/h (0 Bft)
16.10.2013 19:22 10,9 C 9,4 C 93 % 1011,5 hPa 0,0 l/m 0 min 0 min 0,0 UV-I 0 W/m 0,0 km/h (0 Bft)
16.10.2013 19:24 10,9 C 9,4 C 93 % 1011,5 hPa 0,0 l/m 0 min 0 min 0,0 UV-I 0 W/m 0,0 km/h (0 Bft)
16.10.2013 19:26 10,9 C 9,4 C 93 % 1011,5 hPa 0,0 l/m 0 min 0 min 0,0 UV-I 0 W/m 2,6 km/h (1 Bft)
16.10.2013 19:28 10,9 C 9,4 C 93 % 1011,5 hPa 0,0 l/m 0 min 0 min 0,0 UV-I 0 W/m 0,0 km/h (0 Bft)
16.10.2013 19:30 10,9 C 9,4 C 93 % 1011,5 hPa 0,0 l/m 0 min 0 min 0,0 UV-I 0 W/m 2,6 km/h (1 Bft)
16.10.2013 19:32 10,9 C 9,4 C 93 % 1011,4 hPa 0,0 l/m 0 min 0 min 0,0 UV-I 0 W/m 0,0 km/h (0 Bft)
16.10.2013 19:34 10,9 C 9,4 C 93 % 1011,4 hPa 0,0 l/m 0 min 0 min 0,0 UV-I 0 W/m 2,6 km/h (1 Bft)
16.10.2013 19:36 10,9 C 9,4 C 93 % 1011,3 hPa 0,0 l/m 0 min 0 min 0,0 UV-I 0 W/m 0,0 km/h (0 Bft)
16.10.2013 19:38 10,9 C 9,4 C 93 % 1011,3 hPa 0,0 l/m 0 min 0 min 0,0 UV-I 0 W/m 0,0 km/h (0 Bft)
16.10.2013 19:40 10,9 C 9,4 C 93 % 1011,3 hPa 0,0 l/m 0 min 0 min 0,0 UV-I 0 W/m 2,6 km/h (1 Bft)
16.10.2013 19:42 10,9 C 9,4 C 93 % 1011,3 hPa 0,0 l/m 0 min 0 min 0,0 UV-I 0 W/m 0,0 km/h (0 Bft)
16.10.2013 19:44 10,9 C 9,4 C 93 % 1011,3 hPa 0,0 l/m 0 min 0 min 0,0 UV-I 0 W/m 0,0 km/h (0 Bft)
16.10.2013 19:46 10,9 C 9,4 C 93 % 1011,2 hPa 0,0 l/m 0 min 0 min 0,0 UV-I 0 W/m 0,0 km/h (0 Bft)
16.10.2013 19:48 10,9 C 9,4 C 93 % 1011,1 hPa 0,0 l/m 0 min 0 min 0,0 UV-I 0 W/m 0,0 km/h (0 Bft)
16.10.2013 19:50 10,9 C 9,4 C 93 % 1011,2 hPa 0,0 l/m 0 min 0 min 0,0 UV-I 0 W/m 0,0 km/h (0 Bft)
16.10.2013 19:52 10,9 C 9,4 C 93 % 1011,1 hPa 0,0 l/m 0 min 0 min 0,0 UV-I 0 W/m 0,0 km/h (0 Bft)
16.10.2013 19:54 10,9 C 9,4 C 94 % 1011,0 hPa 0,0 l/m 0 min 0 min 0,0 UV-I 0 W/m 0,0 km/h (0 Bft)
16.10.2013 19:56 10,9 C 9,4 C 94 % 1011,1 hPa 0,0 l/m 0 min 0 min 0,0 UV-I 0 W/m 0,0 km/h (0 Bft)
16.10.2013 19:58 10,9 C 9,4 C 94 % 1011,1 hPa 0,0 l/m 0 min 0 min 0,0 UV-I 0 W/m 0,0 km/h (0 Bft)
16.10.2013 20:00 10,9 C 9,4 C 94 % 1011,1 hPa 0,0 l/m 0 min 0 min 0,0 UV-I 0 W/m 0,0 km/h (0 Bft)
16.10.2013 20:02 10,9 C 9,4 C 94 % 1011,1 hPa 0,0 l/m 0 min 0 min 0,0 UV-I 0 W/m 0,0 km/h (0 Bft)
16.10.2013 20:06 10,9 C 9,4 C 94 % 1011,1 hPa 0,0 l/m 0 min 0 min 0,0 UV-I 0 W/m 5,1 km/h (1 Bft)
16.10.2013 20:08 10,9 C 9,4 C 94 % 1011,2 hPa 0,0 l/m 0 min 0 min 0,0 UV-I 0 W/m 0,0 km/h (0 Bft)
16.10.2013 20:10 10,9 C 9,4 C 94 % 1011,2 hPa 0,0 l/m 0 min 0 min 0,0 UV-I 0 W/m 5,1 km/h (1 Bft)
16.10.2013 20:12 10,9 C 9,4 C 94 % 1011,2 hPa 0,0 l/m 0 min 0 min 0,0 UV-I 0 W/m 0,0 km/h (0 Bft)
16.10.2013 20:14 10,9 C 9,4 C 94 % 1011,2 hPa 0,0 l/m 0 min 0 min 0,0 UV-I 0 W/m 0,0 km/h (0 Bft)
16.10.2013 20:16 10,9 C 9,4 C 94 % 1011,2 hPa 0,0 l/m 0 min 0 min 0,0 UV-I 0 W/m 0,0 km/h (0 Bft)
16.10.2013 20:18 10,9 C 9,4 C 94 % 1011,1 hPa 0,0 l/m 0 min 0 min 0,0 UV-I 0 W/m 0,0 km/h (0 Bft)
16.10.2013 20:20 10,9 C 9,4 C 94 % 1011,0 hPa 0,0 l/m 0 min 0 min 0,0 UV-I 0 W/m 0,0 km/h (0 Bft)
16.10.2013 20:22 10,9 C 9,4 C 94 % 1010,9 hPa 0,0 l/m 0 min 0 min 0,0 UV-I 0 W/m 7,7 km/h (2 Bft)
16.10.2013 20:24 10,9 C 9,4 C 94 % 1010,9 hPa 0,0 l/m 0 min 0 min 0,0 UV-I 0 W/m 0,0 km/h (0 Bft)
16.10.2013 20:26 10,9 C 9,4 C 94 % 1010,9 hPa 0,0 l/m 0 min 0 min 0,0 UV-I 0 W/m 2,6 km/h (1 Bft)
16.10.2013 20:28 10,9 C 9,4 C 94 % 1010,9 hPa 0,0 l/m 0 min 0 min 0,0 UV-I 0 W/m 7,7 km/h (2 Bft)
16.10.2013 20:30 10,9 C 9,4 C 94 % 1010,8 hPa 0,0 l/m 0 min 0 min 0,0 UV-I 0 W/m 2,6 km/h (1 Bft)
16.10.2013 20:32 10,9 C 9,4 C 94 % 1010,8 hPa 0,0 l/m 0 min 0 min 0,0 UV-I 0 W/m 0,0 km/h (0 Bft)
16.10.2013 20:34 10,9 C 9,4 C 94 % 1010,8 hPa 0,0 l/m 0 min 0 min 0,0 UV-I 0 W/m 0,0 km/h (0 Bft)
16.10.2013 20:36 10,9 C 9,4 C 94 % 1010,8 hPa 0,0 l/m 0 min 0 min 0,0 UV-I 0 W/m 0,0 km/h (0 Bft)
16.10.2013 20:38 10,9 C 9,4 C 94 % 1010,8 hPa 0,0 l/m 0 min 0 min 0,0 UV-I 0 W/m 0,0 km/h (0 Bft)
16.10.2013 20:40 10,9 C 10,0 C 94 % 1010,8 hPa 0,0 l/m 0 min 0 min 0,0 UV-I 0 W/m 5,1 km/h (1 Bft)
16.10.2013 20:42 11,0 C 10,0 C 94 % 1010,8 hPa 0,0 l/m 0 min 0 min 0,0 UV-I 0 W/m 0,0 km/h (0 Bft)
16.10.2013 20:44 11,0 C 10,0 C 94 % 1010,8 hPa 0,0 l/m 0 min 0 min 0,0 UV-I 0 W/m 2,6 km/h (1 Bft)
16.10.2013 20:46 11,0 C 10,0 C 94 % 1010,8 hPa 0,0 l/m 0 min 0 min 0,0 UV-I 0 W/m 0,0 km/h (0 Bft)
16.10.2013 20:48 11,0 C 10,0 C 94 % 1010,7 hPa 0,0 l/m 0 min 0 min 0,0 UV-I 0 W/m 0,0 km/h (0 Bft)
16.10.2013 20:50 11,1 C 10,0 C 94 % 1010,7 hPa 0,0 l/m 0 min 0 min 0,0 UV-I 0 W/m 5,1 km/h (1 Bft)
16.10.2013 20:52 11,1 C 10,0 C 94 % 1010,7 hPa 0,0 l/m 0 min 0 min 0,0 UV-I 0 W/m 0,0 km/h (0 Bft)
16.10.2013 20:54 11,1 C 10,0 C 93 % 1010,6 hPa 0,0 l/m 0 min 0 min 0,0 UV-I 0 W/m 0,0 km/h (0 Bft)
16.10.2013 20:56 11,1 C 10,0 C 93 % 1010,6 hPa 0,0 l/m 0 min 0 min 0,0 UV-I 0 W/m 0,0 km/h (0 Bft)
16.10.2013 20:58 11,1 C 10,0 C 93 % 1010,7 hPa 0,0 l/m 0 min 0 min 0,0 UV-I 0 W/m 0,0 km/h (0 Bft)
16.10.2013 21:00 11,1 C 10,0 C 93 % 1010,7 hPa 0,0 l/m 0 min 0 min 0,0 UV-I 0 W/m 0,0 km/h (0 Bft)
16.10.2013 21:02 11,1 C 10,0 C 93 % 1010,7 hPa 0,0 l/m 0 min 2 min 0,0 UV-I 0 W/m 5,1 km/h (1 Bft)
16.10.2013 21:06 11,1 C 9,4 C 93 % 1010,7 hPa 0,0 l/m 0 min 2 min 0,0 UV-I 0 W/m 0,0 km/h (0 Bft)
16.10.2013 21:08 11,1 C 9,4 C 93 % 1010,7 hPa 0,0 l/m 0 min 2 min 0,0 UV-I 0 W/m 5,1 km/h (1 Bft)
16.10.2013 21:10 11,1 C 9,4 C 93 % 1010,7 hPa 0,0 l/m 0 min 0 min 0,0 UV-I 0 W/m 0,0 km/h (0 Bft)
16.10.2013 21:12 11,1 C 9,4 C 93 % 1010,6 hPa 0,0 l/m 0 min 2 min 0,0 UV-I 0 W/m 0,0 km/h (0 Bft)
16.10.2013 21:14 11,1 C 9,4 C 93 % 1010,7 hPa 0,0 l/m 0 min 2 min 0,0 UV-I 0 W/m 0,0 km/h (0 Bft)
16.10.2013 21:16 11,1 C 9,4 C 93 % 1010,7 hPa 0,0 l/m 0 min 0 min 0,0 UV-I 0 W/m 7,7 km/h (2 Bft)
16.10.2013 21:18 11,1 C 9,4 C 93 % 1010,7 hPa 0,0 l/m 0 min 0 min 0,0 UV-I 0 W/m 2,6 km/h (1 Bft)
16.10.2013 21:20 11,1 C 9,4 C 93 % 1010,7 hPa 0,0 l/m 0 min 0 min 0,0 UV-I 0 W/m 10,3 km/h (2 Bft)
16.10.2013 21:22 11,1 C 9,4 C 92 % 1010,7 hPa 0,0 l/m 0 min 2 min 0,0 UV-I 0 W/m 7,7 km/h (2 Bft)
16.10.2013 21:24 11,1 C 9,4 C 92 % 1010,6 hPa 0,0 l/m 0 min 0 min 0,0 UV-I 0 W/m 2,6 km/h (1 Bft)
16.10.2013 21:26 11,1 C 9,4 C 92 % 1010,7 hPa 0,0 l/m 0 min 0 min 0,0 UV-I 0 W/m 0,0 km/h (0 Bft)
16.10.2013 21:28 11,1 C 9,4 C 92 % 1010,7 hPa 0,0 l/m 0 min 0 min 0,0 UV-I 0 W/m 7,7 km/h (2 Bft)
16.10.2013 21:30 11,1 C 9,4 C 92 % 1010,7 hPa 0,0 l/m 0 min 0 min 0,0 UV-I 0 W/m 0,0 km/h (0 Bft)
16.10.2013 21:32 11,1 C 9,4 C 92 % 1010,8 hPa 0,0 l/m 0 min 0 min 0,0 UV-I 0 W/m 2,6 km/h (1 Bft)
16.10.2013 21:34 11,1 C 9,4 C 92 % 1010,7 hPa 0,0 l/m 0 min 0 min 0,0 UV-I 0 W/m 2,6 km/h (1 Bft)
16.10.2013 21:36 11,0 C 9,4 C 92 % 1010,7 hPa 0,0 l/m 0 min 2 min 0,0 UV-I 0 W/m 2,6 km/h (1 Bft)
16.10.2013 21:38 11,0 C 9,4 C 92 % 1010,6 hPa 0,0 l/m 0 min 2 min 0,0 UV-I 0 W/m 5,1 km/h (1 Bft)
16.10.2013 21:40 11,0 C 9,4 C 92 % 1010,7 hPa 0,0 l/m 0 min 2 min 0,0 UV-I 0 W/m 10,3 km/h (2 Bft)
16.10.2013 21:42 11,0 C 9,4 C 92 % 1010,6 hPa 0,0 l/m 0 min 2 min 0,0 UV-I 0 W/m 2,6 km/h (1 Bft)
16.10.2013 21:44 11,0 C 9,4 C 92 % 1010,6 hPa 0,0 l/m 0 min 2 min 0,0 UV-I 0 W/m 5,1 km/h (1 Bft)
16.10.2013 21:46 11,0 C 9,4 C 92 % 1010,6 hPa 0,0 l/m 0 min 0 min 0,0 UV-I 0 W/m 7,7 km/h (2 Bft)
16.10.2013 21:48 10,9 C 9,4 C 92 % 1010,7 hPa 0,0 l/m 0 min 0 min 0,0 UV-I 0 W/m 2,6 km/h (1 Bft)
16.10.2013 21:50 10,9 C 9,4 C 92 % 1010,7 hPa 0,0 l/m 0 min 0 min 0,0 UV-I 0 W/m 5,1 km/h (1 Bft)
16.10.2013 21:52 10,9 C 9,4 C 92 % 1010,6 hPa 0,0 l/m 0 min 0 min 0,0 UV-I 0 W/m 7,7 km/h (2 Bft)
16.10.2013 21:54 10,9 C 9,4 C 92 % 1010,5 hPa 0,0 l/m 0 min 0 min 0,0 UV-I 0 W/m 7,7 km/h (2 Bft)
16.10.2013 21:56 10,9 C 9,4 C 92 % 1010,5 hPa 0,0 l/m 0 min 0 min 0,0 UV-I 0 W/m 7,7 km/h (2 Bft)
16.10.2013 21:58 10,9 C 9,4 C 92 % 1010,5 hPa 0,0 l/m 0 min 0 min 0,0 UV-I 0 W/m 7,7 km/h (2 Bft)
16.10.2013 22:00 10,9 C 9,4 C 92 % 1010,6 hPa 0,0 l/m 0 min 0 min 0,0 UV-I 0 W/m 7,7 km/h (2 Bft)
16.10.2013 22:02 10,9 C 9,4 C 92 % 1010,5 hPa 0,0 l/m 0 min 0 min 0,0 UV-I 0 W/m 5,1 km/h (1 Bft)
16.10.2013 22:06 10,9 C 9,4 C 92 % 1010,4 hPa 0,0 l/m 0 min 0 min 0,0 UV-I 0 W/m 7,7 km/h (2 Bft)
16.10.2013 22:08 10,9 C 9,4 C 92 % 1010,3 hPa 0,0 l/m 0 min 0 min 0,0 UV-I 0 W/m 12,9 km/h (3 Bft)
16.10.2013 22:10 10,9 C 9,4 C 91 % 1010,1 hPa 0,0 l/m 0 min 0 min 0,0 UV-I 0 W/m 7,7 km/h (2 Bft)
16.10.2013 22:12 10,9 C 9,4 C 91 % 1010,0 hPa 0,0 l/m 0 min 0 min 0,0 UV-I 0 W/m 0,0 km/h (0 Bft)
16.10.2013 22:14 10,9 C 9,4 C 91 % 1010,1 hPa 0,0 l/m 0 min 0 min 0,0 UV-I 0 W/m 7,7 km/h (2 Bft)
16.10.2013 22:16 10,9 C 9,4 C 91 % 1010,1 hPa 0,0 l/m 0 min 0 min 0,0 UV-I 0 W/m 15,4 km/h (3 Bft)
16.10.2013 22:18 10,9 C 9,4 C 91 % 1010,3 hPa 0,0 l/m 0 min 0 min 0,0 UV-I 0 W/m 10,3 km/h (2 Bft)
16.10.2013 22:20 10,9 C 9,4 C 91 % 1010,4 hPa 0,0 l/m 0 min 0 min 0,0 UV-I 0 W/m 12,9 km/h (3 Bft)
16.10.2013 22:22 10,9 C 9,4 C 91 % 1010,3 hPa 0,0 l/m 0 min 0 min 0,0 UV-I 0 W/m 15,4 km/h (3 Bft)
16.10.2013 22:24 10,9 C 9,4 C 91 % 1010,3 hPa 0,0 l/m 0 min 0 min 0,0 UV-I 0 W/m 7,7 km/h (2 Bft)
16.10.2013 22:26 10,9 C 9,4 C 92 % 1010,3 hPa 0,0 l/m 0 min 0 min 0,0 UV-I 0 W/m 12,9 km/h (3 Bft)
16.10.2013 22:28 10,9 C 9,4 C 92 % 1010,4 hPa 0,0 l/m 0 min 0 min 0,0 UV-I 0 W/m 7,7 km/h (2 Bft)
16.10.2013 22:30 10,9 C 9,4 C 92 % 1010,5 hPa 0,0 l/m 0 min 0 min 0,0 UV-I 0 W/m 0,0 km/h (0 Bft)
16.10.2013 22:32 10,9 C 9,4 C 92 % 1010,5 hPa 0,0 l/m 0 min 0 min 0,0 UV-I 0 W/m 12,9 km/h (3 Bft)
16.10.2013 22:34 10,9 C 9,4 C 92 % 1010,4 hPa 0,0 l/m 0 min 0 min 0,0 UV-I 0 W/m 0,0 km/h (0 Bft)
16.10.2013 22:36 10,9 C 9,4 C 92 % 1010,5 hPa 0,0 l/m 0 min 0 min 0,0 UV-I 0 W/m 10,3 km/h (2 Bft)
16.10.2013 22:38 10,9 C 9,4 C 92 % 1010,5 hPa 0,0 l/m 0 min 0 min 0,0 UV-I 0 W/m 5,1 km/h (1 Bft)
16.10.2013 22:40 10,9 C 9,4 C 92 % 1010,6 hPa 0,0 l/m 0 min 2 min 0,0 UV-I 0 W/m 0,0 km/h (0 Bft)
16.10.2013 22:42 10,9 C 9,4 C 92 % 1010,6 hPa 0,0 l/m 0 min 0 min 0,0 UV-I 0 W/m 5,1 km/h (1 Bft)
16.10.2013 22:44 10,9 C 9,4 C 92 % 1010,6 hPa 0,0 l/m 0 min 2 min 0,0 UV-I 0 W/m 0,0 km/h (0 Bft)
16.10.2013 22:46 10,9 C 9,4 C 92 % 1010,6 hPa 0,0 l/m 0 min 0 min 0,0 UV-I 0 W/m 2,6 km/h (1 Bft)
16.10.2013 22:48 10,9 C 9,4 C 92 % 1010,6 hPa 0,0 l/m 0 min 2 min 0,0 UV-I 0 W/m 5,1 km/h (1 Bft)
16.10.2013 22:50 10,8 C 9,4 C 92 % 1010,7 hPa 0,0 l/m 0 min 0 min 0,0 UV-I 0 W/m 5,1 km/h (1 Bft)
16.10.2013 22:52 10,8 C 9,4 C 93 % 1010,6 hPa 0,0 l/m 0 min 0 min 0,0 UV-I 0 W/m 0,0 km/h (0 Bft)
16.10.2013 22:54 10,8 C 9,4 C 93 % 1010,7 hPa 0,0 l/m 0 min 0 min 0,0 UV-I 0 W/m 10,3 km/h (2 Bft)
16.10.2013 22:56 10,7 C 9,4 C 93 % 1010,7 hPa 0,0 l/m 0 min 0 min 0,0 UV-I 0 W/m 0,0 km/h (0 Bft)
16.10.2013 22:58 10,7 C 9,4 C 93 % 1010,7 hPa 0,0 l/m 0 min 0 min 0,0 UV-I 0 W/m 7,7 km/h (2 Bft)
16.10.2013 23:00 10,7 C 9,4 C 93 % 1010,6 hPa 0,0 l/m 0 min 2 min 0,0 UV-I 0 W/m 15,4 km/h (3 Bft)
16.10.2013 23:02 10,7 C 8,9 C 94 % 1010,6 hPa 0,0 l/m 0 min 0 min 0,0 UV-I 0 W/m 12,9 km/h (3 Bft)
16.10.2013 23:06 10,6 C 8,9 C 94 % 1010,7 hPa 0,0 l/m 0 min 0 min 0,0 UV-I 0 W/m 7,7 km/h (2 Bft)
16.10.2013 23:08 10,6 C 8,9 C 94 % 1010,7 hPa 0,0 l/m 0 min 0 min 0,0 UV-I 0 W/m 0,0 km/h (0 Bft)
16.10.2013 23:10 10,6 C 8,9 C 94 % 1010,6 hPa 0,0 l/m 0 min 0 min 0,0 UV-I 0 W/m 0,0 km/h (0 Bft)
16.10.2013 23:12 10,6 C 8,9 C 94 % 1010,6 hPa 0,0 l/m 0 min 0 min 0,0 UV-I 0 W/m 10,3 km/h (2 Bft)
16.10.2013 23:14 10,5 C 9,4 C 95 % 1010,6 hPa 0,0 l/m 0 min 0 min 0,0 UV-I 0 W/m 10,3 km/h (2 Bft)
16.10.2013 23:16 10,5 C 8,9 C 95 % 1010,6 hPa 0,0 l/m 0 min 2 min 0,0 UV-I 0 W/m 7,7 km/h (2 Bft)
16.10.2013 23:18 10,5 C 8,9 C 95 % 1010,5 hPa 0,0 l/m 0 min 2 min 0,0 UV-I 0 W/m 10,3 km/h (2 Bft)
16.10.2013 23:20 10,5 C 9,4 C 95 % 1010,6 hPa 0,0 l/m 0 min 2 min 0,0 UV-I 0 W/m 2,6 km/h (1 Bft)
16.10.2013 23:22 10,5 C 8,9 C 95 % 1010,6 hPa 0,0 l/m 0 min 2 min 0,0 UV-I 0 W/m 0,0 km/h (0 Bft)
16.10.2013 23:24 10,5 C 9,4 C 95 % 1010,5 hPa 0,0 l/m 0 min 2 min 0,0 UV-I 0 W/m 0,0 km/h (0 Bft)
16.10.2013 23:26 10,4 C 9,4 C 96 % 1010,5 hPa 0,0 l/m 0 min 2 min 0,0 UV-I 0 W/m 10,3 km/h (2 Bft)
16.10.2013 23:28 10,4 C 9,4 C 95 % 1010,5 hPa 0,2 l/m 0 min 2 min 0,0 UV-I 0 W/m 5,1 km/h (1 Bft)
16.10.2013 23:30 10,4 C 9,4 C 96 % 1010,5 hPa 0,0 l/m 0 min 0 min 0,0 UV-I 0 W/m 5,1 km/h (1 Bft)
16.10.2013 23:32 10,4 C 9,4 C 96 % 1010,5 hPa 0,0 l/m 0 min 0 min 0,0 UV-I 0 W/m 2,6 km/h (1 Bft)
16.10.2013 23:34 10,4 C 9,4 C 96 % 1010,6 hPa 0,0 l/m 0 min 0 min 0,0 UV-I 0 W/m 10,3 km/h (2 Bft)
16.10.2013 23:36 10,4 C 9,4 C 96 % 1010,5 hPa 0,0 l/m 0 min 0 min 0,0 UV-I 0 W/m 7,7 km/h (2 Bft)
16.10.2013 23:38 10,4 C 9,4 C 96 % 1010,5 hPa 0,0 l/m 0 min 0 min 0,0 UV-I 0 W/m 7,7 km/h (2 Bft)
16.10.2013 23:40 10,4 C 9,4 C 96 % 1010,5 hPa 0,0 l/m 0 min 0 min 0,0 UV-I 0 W/m 10,3 km/h (2 Bft)
16.10.2013 23:42 10,4 C 9,4 C 96 % 1010,5 hPa 0,0 l/m 0 min 0 min 0,0 UV-I 0 W/m 0,0 km/h (0 Bft)
16.10.2013 23:44 10,4 C 9,4 C 96 % 1010,5 hPa 0,0 l/m 0 min 0 min 0,0 UV-I 0 W/m 0,0 km/h (0 Bft)
16.10.2013 23:46 10,4 C 9,4 C 96 % 1010,5 hPa 0,0 l/m 0 min 0 min 0,0 UV-I 0 W/m 0,0 km/h (0 Bft)
16.10.2013 23:48 10,4 C 9,4 C 96 % 1010,5 hPa 0,0 l/m 0 min 0 min 0,0 UV-I 0 W/m 0,0 km/h (0 Bft)
16.10.2013 23:50 10,4 C 9,4 C 97 % 1010,5 hPa 0,0 l/m 0 min 0 min 0,0 UV-I 0 W/m 5,1 km/h (1 Bft)
16.10.2013 23:52 10,4 C 9,4 C 97 % 1010,6 hPa 0,0 l/m 0 min 0 min 0,0 UV-I 0 W/m 7,7 km/h (2 Bft)
16.10.2013 23:54 10,4 C 9,4 C 97 % 1010,6 hPa 0,0 l/m 0 min 0 min 0,0 UV-I 0 W/m 0,0 km/h (0 Bft)
16.10.2013 23:56 10,4 C 9,4 C 97 % 1010,6 hPa 0,0 l/m 0 min 0 min 0,0 UV-I 0 W/m 7,7 km/h (2 Bft)
16.10.2013 23:58 10,4 C 9,4 C 97 % 1010,6 hPa 0,0 l/m 0 min 0 min 0,0 UV-I 0 W/m 10,3 km/h (2 Bft)
_ Min-Zeit 06:44 00:28 15:34 00:00 - - - - - 00:00
Minimum _ 7,9 C 7,2 C 88 % 1008,7 hPa - - - - - 0,0 km/h (0 Bft)
_ Max-Zeit 15:58 15:16 01:06 12:24 23:28 12:58 21:02 13:26 13:08 01:26
Maximum _ 12,8 C 12,2 C 99 % 1014,6 hPa 0,2 l/m 2 min 2 min 1,1 UV-I 436 W/m 15,4 km/h
N-NW (3 Bft)
Durchschnitt _ 9,9 C 9,0 C 95 % 1012,2 hPa #0,2 l/m #32 min. #44 min. 0,8 UV-I 115 W/m 2,1 km/h (1 Bft)
© 2013 W. Hausmann